[[{"header":{"parameterUnit":"m.s-1","parameterCategory":1,"la1":30.6,"la2":29.2853,"lo1":-89.7004,"lo2":-87.6739,"dy":0.0162,"dx":0.0183,"nx":112,"ny":82,"refTime":"2023-11-20T18:00:00:Z","depth":0,"parameterNumber":2,"parameterNumberName":"U-component_of_WINDS"},"data":[0.0,0.0,0.0,0.0,0.0,0.0,0.0,0.0,0.0,0.0,0.0,0.0,0.0,0.0,0.0,0.0,0.0,0.0,0.0,0.0,0.0,0.0,0.0,0.0,0.0,0.0,0.0,0.0,0.0,0.0,0.0,0.0,0.0,0.0,0.0,0.0,0.0,0.0,0.0,0.0,0.0,0.0,0.0,0.0,0.0,0.0,0.0,0.0,0.0,0.0,0.0,0.0,0.0,0.0,0.0,0.0,0.0,0.0,0.0,0.0,0.0,0.0,0.0,0.0,0.0,0.0,0.0,0.0,0.0,0.0,0.0,0.0,0.0,0.0,0.0,0.0,0.0,0.0,0.0,0.0,0.0,0.0,0.0,0.0,0.0,0.0,0.0,0.0,0.0,0.0,0.0,4.0649,4.5774,4.8241,4.6631,4.564,4.2698,3.7037,0.0,0.0,0.0,0.0,0.0,0.0,0.0,0.0,0.0,0.0,0.0,0.0,0.0,0.0,0.0,0.0,0.0,0.0,0.0,0.0,0.0,0.0,0.0,0.0,0.0,0.0,0.0,0.0,0.0,0.0,0.0,0.0,0.0,0.0,0.0,0.0,0.0,0.0,0.0,0.0,0.0,0.0,0.0,0.0,0.0,0.0,0.0,0.0,0.0,0.0,0.0,0.0,0.0,0.0,0.0,0.0,0.0,0.0,0.0,0.0,0.0,0.0,0.0,0.0,0.0,0.0,0.0,0.0,0.0,0.0,0.0,0.0,0.0,0.0,0.0,0.0,0.0,0.0,0.0,0.0,0.0,0.0,0.0,0.0,0.0,0.0,0.0,0.0,0.0,0.0,0.0,0.0,0.0,0.0,0.0,0.0,0.0,0.0,0.0,0.0,0.0,0.0,0.0,0.0,3.7595,4.3866,4.6612,4.7584,4.6593,4.5081,4.2292,3.7808,0.0,0.0,0.0,0.0,0.0,0.0,0.0,0.0,0.0,0.0,0.0,0.0,0.0,0.0,0.0,0.0,0.0,0.0,0.0,0.0,0.0,0.0,0.0,0.0,0.0,0.0,0.0,0.0,0.0,0.0,0.0,0.0,0.0,0.0,0.0,0.0,0.0,0.0,0.0,0.0,0.0,0.0,0.0,0.0,0.0,0.0,0.0,0.0,0.0,0.0,0.0,0.0,0.0,0.0,0.0,0.0,0.0,0.0,0.0,0.0,0.0,0.0,0.0,0.0,0.0,0.0,0.0,0.0,0.0,0.0,0.0,0.0,0.0,0.0,0.0,0.0,0.0,0.0,0.0,0.0,0.0,0.0,0.0,0.0,0.0,0.0,0.0,0.0,0.0,0.0,0.0,0.0,0.0,0.0,0.0,0.0,0.0,0.0,0.0,0.0,0.0,0.0,0.0,3.6602,3.9487,4.5335,4.7068,4.7447,4.6574,4.4964,4.2404,3.8648,3.6753,0.0,0.0,0.0,0.0,0.0,0.0,0.0,0.0,0.0,0.0,0.0,0.0,0.0,0.0,0.0,0.0,0.0,0.0,0.0,0.0,0.0,0.0,0.0,0.0,0.0,0.0,0.0,0.0,0.0,0.0,0.0,0.0,0.0,0.0,0.0,0.0,0.0,0.0,0.0,0.0,0.0,0.0,0.0,0.0,0.0,0.0,0.0,0.0,0.0,0.0,0.0,0.0,0.0,0.0,0.0,0.0,0.0,0.0,0.0,0.0,0.0,0.0,0.0,0.0,0.0,0.0,0.0,0.0,0.0,0.0,0.0,0.0,0.0,0.0,0.0,0.0,0.0,0.0,0.0,0.0,0.0,0.0,0.0,0.0,0.0,0.0,0.0,0.0,0.0,0.0,0.0,0.0,0.0,0.0,0.0,0.0,0.0,0.0,0.0,0.0,0.0,0.0,3.9811,4.1511,4.5755,4.6972,4.7144,4.6287,4.4489,4.2159,3.9181,3.643,0.0,0.0,0.0,0.0,0.0,0.0,0.0,0.0,0.0,0.0,0.0,0.0,0.0,0.0,0.0,0.0,0.0,0.0,0.0,0.0,0.0,0.0,0.0,0.0,0.0,0.0,0.0,0.0,0.0,0.0,0.0,0.0,0.0,0.0,0.0,0.0,0.0,0.0,0.0,0.0,0.0,0.0,0.0,0.0,0.0,0.0,0.0,0.0,0.0,0.0,0.0,0.0,0.0,0.0,0.0,0.0,0.0,0.0,0.0,0.0,0.0,0.0,0.0,0.0,0.0,0.0,0.0,0.0,0.0,0.0,0.0,0.0,0.0,0.0,0.0,0.0,0.0,0.0,0.0,0.0,0.0,0.0,0.0,0.0,0.0,0.0,0.0,0.0,0.0,0.0,0.0,0.0,0.0,0.0,0.0,0.0,0.0,0.0,0.0,0.0,0.0,0.0,4.0597,4.3271,4.5187,4.6118,4.6268,4.5455,4.3105,4.0905,3.9104,3.5918,0.0,0.0,0.0,0.0,0.0,0.0,0.0,0.0,0.0,0.0,0.0,0.0,0.0,0.0,0.0,0.0,0.0,0.0,0.0,0.0,0.0,0.0,0.0,0.0,0.0,0.0,0.0,0.0,0.0,0.0,0.0,0.0,0.0,0.0,0.0,0.0,0.0,0.0,0.0,0.0,0.0,0.0,0.0,0.0,0.0,0.0,0.0,0.0,0.0,0.0,0.0,0.0,0.0,0.0,0.0,0.0,0.0,0.0,0.0,0.0,0.0,0.0,0.0,0.0,0.0,0.0,0.0,0.0,0.0,0.0,0.0,0.0,0.0,0.0,0.0,0.0,0.0,0.0,0.0,0.0,0.0,0.0,0.0,0.0,0.0,0.0,0.0,0.0,0.0,0.0,0.0,0.0,0.0,0.0,0.0,0.0,0.0,0.0,0.0,0.0,0.0,0.0,3.9773,4.2276,0.0,4.5567,4.5624,4.5321,4.2952,4.102,3.9885,0.0,0.0,0.0,0.0,0.0,0.0,0.0,0.0,0.0,0.0,0.0,0.0,0.0,0.0,0.0,0.0,0.0,0.0,0.0,0.0,0.0,0.0,0.0,0.0,0.0,0.0,0.0,0.0,0.0,0.0,0.0,0.0,0.0,0.0,0.0,0.0,0.0,0.0,0.0,0.0,0.0,0.0,0.0,0.0,0.0,0.0,0.0,0.0,0.0,0.0,0.0,0.0,0.0,0.0,0.0,0.0,0.0,0.0,0.0,0.0,0.0,0.0,0.0,0.0,0.0,0.0,0.0,0.0,0.0,0.0,0.0,0.0,0.0,0.0,0.0,0.0,0.0,0.0,0.0,0.0,0.0,0.0,0.0,0.0,0.0,0.0,0.0,0.0,0.0,0.0,0.0,0.0,0.0,0.0,0.0,0.0,0.0,0.0,0.0,0.0,0.0,0.0,3.7332,3.9697,4.2161,0.0,4.5302,4.5187,4.4914,4.2565,4.0769,3.9943,0.0,0.0,0.0,0.0,0.0,0.0,0.0,0.0,0.0,0.0,0.0,0.0,0.0,0.0,0.0,0.0,0.0,0.0,0.0,0.0,0.0,0.0,0.0,0.0,0.0,0.0,0.0,0.0,0.0,0.0,0.0,0.0,0.0,0.0,0.0,0.0,0.0,0.0,0.0,0.0,0.0,0.0,0.0,0.0,0.0,0.0,0.0,0.0,0.0,0.0,0.0,0.0,0.0,0.0,0.0,0.0,0.0,0.0,0.0,0.0,0.0,0.0,0.0,0.0,0.0,0.0,0.0,0.0,0.0,0.0,0.0,0.0,0.0,0.0,0.0,0.0,0.0,0.0,0.0,0.0,0.0,0.0,0.0,0.0,0.0,0.0,0.0,0.0,0.0,0.0,0.0,0.0,0.0,0.0,0.0,0.0,0.0,0.0,0.0,0.0,0.0,0.0,3.7504,4.0692,4.3443,4.5111,4.5302,4.4955,4.4066,4.1736,3.9924,0.0,0.0,0.0,0.0,0.0,0.0,0.0,0.0,0.0,0.0,0.0,0.0,0.0,0.0,0.0,0.0,0.0,0.0,0.0,0.0,0.0,0.0,0.0,0.0,0.0,0.0,0.0,0.0,0.0,0.0,0.0,0.0,0.0,0.0,0.0,0.0,0.0,0.0,0.0,0.0,0.0,0.0,0.0,0.0,0.0,0.0,0.0,0.0,0.0,0.0,0.0,0.0,0.0,0.0,0.0,0.0,0.0,0.0,0.0,0.0,0.0,0.0,0.0,0.0,0.0,0.0,0.0,0.0,0.0,0.0,0.0,0.0,0.0,0.0,0.0,0.0,0.0,0.0,0.0,0.0,0.0,0.0,0.0,0.0,0.0,0.0,0.0,0.0,0.0,0.0,0.0,0.0,0.0,0.0,0.0,0.0,0.0,0.0,0.0,0.0,0.0,0.0,0.0,3.8398,4.1566,4.4071,4.5187,4.5302,4.4955,4.4066,4.1736,3.9924,3.9066,0.0,0.0,0.0,0.0,0.0,0.0,0.0,0.0,0.0,0.0,0.0,0.0,0.0,0.0,0.0,0.0,0.0,0.0,0.0,0.0,0.0,0.0,0.0,0.0,0.0,0.0,0.0,0.0,0.0,0.0,0.0,0.0,0.0,0.0,0.0,0.0,0.0,0.0,0.0,0.0,0.0,0.0,0.0,0.0,0.0,0.0,0.0,0.0,0.0,0.0,0.0,0.0,0.0,0.0,0.0,0.0,0.0,0.0,0.0,0.0,0.0,0.0,0.0,0.0,0.0,0.0,0.0,0.0,0.0,0.0,0.0,0.0,0.0,0.0,0.0,0.0,0.0,0.0,0.0,0.0,0.0,0.0,0.0,0.0,0.0,0.0,0.0,0.0,0.0,0.0,0.0,0.0,0.0,0.0,0.0,0.0,0.0,0.0,0.0,0.0,0.0,0.0,3.878,4.1927,4.4336,4.5206,4.5302,4.4822,4.3629,4.1545,3.9771,3.8553,0.0,0.0,0.0,0.0,0.0,0.0,0.0,0.0,0.0,0.0,0.0,0.0,0.0,0.0,0.0,0.0,0.0,0.0,0.0,0.0,0.0,0.0,0.0,0.0,0.0,0.0,0.0,0.0,0.0,0.0,0.0,0.0,0.0,0.0,0.0,0.0,0.0,0.0,0.0,0.0,0.0,0.0,0.0,0.0,0.0,0.0,0.0,0.0,0.0,0.0,0.0,0.0,0.0,0.0,0.0,0.0,0.0,0.0,0.0,0.0,0.0,0.0,0.0,0.0,0.0,0.0,0.0,0.0,0.0,0.0,0.0,0.0,0.0,0.0,0.0,0.0,0.0,0.0,0.0,0.0,0.0,0.0,0.0,0.0,0.0,0.0,0.0,0.0,0.0,0.0,0.0,0.0,0.0,0.0,0.0,0.0,0.0,0.0,0.0,0.0,0.0,0.0,3.8913,4.2044,4.4413,4.5225,4.5302,4.465,4.3042,4.1375,3.9675,3.7924,0.0,0.0,0.0,0.0,0.0,0.0,0.0,0.0,0.0,0.0,0.0,0.0,0.0,0.0,0.0,0.0,0.0,0.0,0.0,0.0,0.0,0.0,0.0,0.0,0.0,0.0,0.0,0.0,0.0,0.0,0.0,0.0,0.0,0.0,0.0,0.0,0.0,0.0,0.0,0.0,0.0,0.0,0.0,0.0,0.0,0.0,0.0,0.0,0.0,0.0,0.0,0.0,0.0,0.0,0.0,0.0,0.0,0.0,0.0,0.0,3.0716,0.0,0.0,0.0,0.0,0.0,0.0,0.0,0.0,0.0,0.0,0.0,0.0,0.0,0.0,0.0,0.0,0.0,0.0,0.0,0.0,0.0,0.0,0.0,0.0,0.0,0.0,0.0,0.0,0.0,0.0,0.0,0.0,0.0,0.0,0.0,0.0,0.0,0.0,0.0,0.0,0.0,3.9885,4.2947,4.5089,4.5283,4.5302,4.4879,4.3837,4.2218,4.052,3.8839,3.7731,0.0,0.0,0.0,0.0,0.0,0.0,0.0,0.0,0.0,0.0,0.0,0.0,0.0,0.0,0.0,0.0,0.0,0.0,0.0,0.0,0.0,0.0,0.0,0.0,0.0,0.0,0.0,0.0,0.0,0.0,0.0,0.0,0.0,0.0,0.0,0.0,0.0,0.0,0.0,0.0,0.0,0.0,0.0,0.0,0.0,0.0,0.0,0.0,0.0,0.0,0.0,0.0,0.0,0.0,0.0,0.0,0.0,0.0,0.0,0.0,3.1928,0.0,0.0,0.0,0.0,0.0,0.0,0.0,0.0,0.0,0.0,0.0,0.0,0.0,0.0,0.0,0.0,0.0,0.0,0.0,0.0,0.0,0.0,0.0,0.0,0.0,0.0,0.0,0.0,0.0,0.0,0.0,0.0,0.0,0.0,0.0,0.0,0.0,0.0,0.0,0.0,4.0709,4.3465,4.5302,4.5302,4.5302,4.4955,4.4066,4.2849,4.1341,3.9541,3.8613,0.0,0.0,0.0,0.0,0.0,0.0,0.0,0.0,0.0,0.0,0.0,0.0,0.0,0.0,0.0,0.0,0.0,0.0,0.0,0.0,0.0,0.0,0.0,0.0,0.0,0.0,0.0,0.0,0.0,0.0,0.0,0.0,0.0,0.0,0.0,0.0,0.0,0.0,0.0,0.0,0.0,0.0,0.0,0.0,0.0,0.0,0.0,0.0,0.0,0.0,0.0,0.0,0.0,3.7384,3.8084,3.8204,3.8761,3.9178,3.9304,3.6774,3.5177,3.4353,0.0,0.0,0.0,0.0,0.0,0.0,0.0,0.0,0.0,0.0,0.0,0.0,0.0,0.0,0.0,0.0,0.0,0.0,0.0,0.0,0.0,0.0,0.0,0.0,0.0,3.8657,3.8262,0.0,0.0,0.0,0.0,0.0,0.0,0.0,0.0,0.0,0.0,0.0,0.0,4.1229,4.3635,4.5202,4.5202,4.5202,4.4949,4.4274,4.3443,4.2187,4.0423,3.9564,3.8611,0.0,0.0,0.0,0.0,0.0,0.0,0.0,0.0,0.0,0.0,0.0,0.0,0.0,0.0,0.0,0.0,0.0,0.0,0.0,0.0,0.0,0.0,0.0,0.0,0.0,0.0,0.0,0.0,0.0,0.0,0.0,0.0,3.2886,3.148,0.0,0.0,0.0,0.0,0.0,0.0,0.0,0.0,0.0,0.0,0.0,0.0,0.0,3.5496,3.6401,3.8524,3.9666,3.9801,4.137,4.2127,4.215,4.2235,4.3032,4.43,4.3215,0.0,3.6523,3.591,0.0,0.0,0.0,0.0,0.0,0.0,0.0,0.0,0.0,0.0,0.0,0.0,0.0,0.0,0.0,0.0,0.0,0.0,0.0,0.0,0.0,0.0,3.8378,3.9296,3.9836,3.9979,0.0,3.8797,3.7882,3.629,3.608,0.0,0.0,0.0,0.0,0.0,0.0,0.0,4.1027,4.3335,4.4865,4.4865,4.4865,4.494,4.5111,4.4121,4.3064,4.2047,4.1443,4.0193,3.8178,3.914,0.0,0.0,0.0,0.0,0.0,0.0,0.0,0.0,0.0,0.0,0.0,0.0,0.0,0.0,0.0,0.0,0.0,0.0,0.0,0.0,0.0,0.0,0.0,0.0,0.0,0.0,0.0,0.0,0.0,3.3951,3.415,3.2545,3.377,3.3933,0.0,0.0,0.0,0.0,0.0,0.0,0.0,0.0,0.0,3.6743,3.8292,3.994,4.1642,4.3584,4.4774,4.5239,4.6853,4.7619,4.7619,4.7619,4.8253,4.928,4.8012,4.6297,4.4092,4.0595,3.8259,3.6766,0.0,0.0,0.0,0.0,3.6112,3.6976,3.7395,3.7579,0.0,3.8069,0.0,0.0,0.0,0.0,0.0,0.0,0.0,0.0,0.0,0.0,4.1462,4.2755,4.3526,4.3752,4.2991,4.2377,4.1124,0.0,3.8199,3.811,3.6448,0.0,0.0,0.0,0.0,4.1357,4.2372,4.3712,4.4631,4.4779,4.4794,4.4804,4.4779,4.4479,4.3762,4.2604,4.2302,4.1396,3.9683,3.9735,3.954,0.0,0.0,0.0,0.0,0.0,0.0,0.0,0.0,0.0,0.0,0.0,0.0,0.0,0.0,0.0,0.0,0.0,0.0,0.0,0.0,0.0,0.0,0.0,0.0,0.0,0.0,0.0,0.0,3.4345,3.4906,3.3284,3.4874,3.5168,0.0,0.0,0.0,0.0,0.0,0.0,3.6101,3.8214,3.9975,4.1184,4.2932,4.4815,4.6812,4.8224,4.9324,5.0133,5.1339,5.2015,5.2214,5.2214,5.2558,5.3047,5.1634,5.1024,5.0602,4.5177,4.2167,4.088,3.9943,3.9597,3.9627,3.9697,4.0292,4.1137,4.168,4.1805,4.1709,4.1665,0.0,3.9615,3.8358,0.0,0.0,0.0,0.0,3.9703,4.1721,4.2937,4.4003,4.5466,4.6319,4.6534,4.5523,4.5122,4.3813,0.0,3.9867,3.9773,3.7871,0.0,0.0,0.0,0.0,4.2222,4.3503,4.404,4.4449,4.4864,4.4717,4.4533,4.4404,4.4513,4.4148,4.3103,4.2884,4.2201,4.0863,4.018,3.9921,4.0085,0.0,0.0,0.0,0.0,0.0,0.0,0.0,0.0,0.0,0.0,0.0,0.0,0.0,0.0,0.0,0.0,0.0,0.0,0.0,0.0,0.0,0.0,0.0,0.0,0.0,0.0,0.0,0.0,0.0,3.2455,3.5034,0.0,0.0,0.0,0.0,3.5627,3.8469,4.0207,4.0207,4.3905,4.6064,4.6137,4.8447,5.0101,5.0982,5.1834,5.2661,5.3458,5.3548,5.3977,5.4719,5.4719,5.4738,5.4738,5.3892,5.3512,5.3132,4.8273,4.5761,4.4866,4.3361,4.274,4.2708,4.2959,4.3524,4.4218,4.4436,4.4007,4.3639,4.5135,4.4033,4.1976,4.114,4.0362,0.0,0.0,4.0881,4.2291,4.3181,4.4248,4.5317,4.6151,4.6596,4.678,4.6719,4.6693,4.5545,0.0,4.0758,4.0302,3.9426,0.0,3.9627,4.0426,4.1035,4.2013,4.367,4.3957,4.4315,4.5107,4.4498,4.414,4.4388,4.4188,4.4003,4.3934,4.3407,4.2473,4.1136,4.1048,4.0552,3.9554,4.0008,0.0,0.0,0.0,0.0,0.0,0.0,0.0,0.0,0.0,0.0,0.0,0.0,0.0,0.0,0.0,0.0,0.0,0.0,0.0,0.0,0.0,0.0,0.0,0.0,0.0,0.0,0.0,0.0,3.7604,3.9935,0.0,3.8202,3.8958,3.9809,4.0329,4.2841,4.481,4.586,4.8261,4.9823,5.0343,5.2208,5.3548,5.4321,5.513,5.5673,5.5957,5.5957,5.6102,5.6355,5.5848,5.5884,5.6301,5.5033,5.4744,5.5003,5.28,5.0814,4.9055,4.8024,4.7301,4.6852,4.7032,4.7326,4.7631,4.7696,4.7561,4.7191,4.6218,4.4621,4.2914,4.2117,4.2033,4.2313,4.2832,4.3768,4.5039,4.6939,4.7721,4.8232,4.9029,4.9307,4.9134,4.8273,4.7927,4.7121,4.4927,4.4147,4.3263,4.1556,4.2265,4.2939,4.2532,4.3504,4.4597,4.5395,4.5342,4.5415,4.5925,4.5256,4.4723,4.4599,4.422,4.3692,4.2949,4.2709,4.1984,4.0633,4.0591,4.0322,3.977,3.9957,4.0139,0.0,0.0,0.0,0.0,0.0,0.0,0.0,0.0,0.0,0.0,0.0,0.0,0.0,0.0,0.0,0.0,0.0,0.0,0.0,0.0,0.0,0.0,0.0,0.0,0.0,0.0,4.1519,4.204,4.4254,4.4978,4.3108,4.3664,4.4466,4.5264,4.7301,4.9106,5.0441,5.2009,5.3125,5.3663,5.4979,5.5903,5.6398,5.6941,5.7195,5.7195,5.7195,5.7195,5.7176,5.6651,5.6706,5.7134,5.612,5.5957,5.6361,5.5884,5.4725,5.3162,5.1878,5.1066,5.0575,5.042,5.0401,5.0451,5.0211,5.0163,4.9903,4.803,4.6534,4.5393,4.4857,4.5108,4.5672,4.6195,4.6929,4.7921,4.9582,5.0004,5.0133,5.0674,5.0797,5.0555,4.9667,4.9089,4.8561,4.8005,4.6698,4.5237,4.3763,4.4556,4.5122,4.4418,4.5227,4.608,4.6563,4.6211,4.6084,4.659,4.5668,4.4932,4.4722,4.4174,4.3519,4.2748,4.2694,4.2184,4.1021,4.106,4.0942,4.0579,4.0772,4.098,4.1146,0.0,0.0,0.0,0.0,0.0,0.0,0.0,0.0,0.0,0.0,0.0,0.0,0.0,0.0,0.0,0.0,0.0,0.0,0.0,0.0,0.0,0.0,0.0,3.723,4.0614,4.3707,4.5368,4.7652,4.8793,4.8033,4.8661,4.9468,5.0264,5.1767,5.3005,5.3802,5.5239,5.6035,5.6035,5.6796,5.7195,5.7195,5.7195,5.7195,5.7195,5.7195,5.7195,5.7195,5.7195,5.7195,5.7195,5.7195,5.7195,5.7195,5.7195,5.7195,5.6971,5.4707,5.3784,5.3687,5.2968,5.2687,5.2546,5.1874,5.162,5.1474,5.0693,4.9987,4.944,4.9434,4.9525,4.9642,4.9656,5.0238,5.0839,5.087,5.087,5.087,5.087,5.087,5.087,5.0839,5.022,4.9899,5.0655,4.8214,4.6012,4.5975,4.5975,4.5975,4.5938,4.5961,0.0,4.7044,4.6466,4.6264,4.7058,4.5723,4.4755,4.4737,4.3993,4.3524,4.3469,4.3451,4.3098,4.2304,4.2514,4.2411,4.1902,4.2482,4.2786,4.2794,0.0,0.0,0.0,0.0,0.0,0.0,0.0,0.0,0.0,0.0,0.0,0.0,0.0,0.0,0.0,0.0,0.0,0.0,0.0,0.0,0.0,0.0,4.2814,4.224,4.5091,4.8273,5.1067,5.2492,5.3361,5.3699,5.3911,5.4387,5.5184,5.5655,5.6271,5.7062,5.6959,5.6869,5.6869,5.7086,5.7195,5.7195,5.7195,5.7195,5.7195,5.7195,5.7195,5.7195,5.7195,5.7195,5.7195,5.7195,5.7195,5.7195,5.7195,5.7195,5.714,5.6482,5.5884,5.5341,5.5238,5.4521,5.3515,5.2734,5.2094,5.1566,5.1347,5.0819,5.0257,5.0146,5.0296,5.0567,5.1054,5.1419,5.1793,5.2394,5.2535,5.2535,5.2535,5.2535,5.237,5.1798,5.151,5.1234,5.0875,4.9596,4.8389,4.7751,4.7641,4.7434,4.6865,4.7269,0.0,4.7948,4.7787,4.7714,4.7948,4.7044,4.6205,4.5626,4.4833,4.3878,4.2708,4.2635,4.2268,4.147,4.1501,4.1656,4.1898,4.2251,4.2552,0.0,0.0,0.0,0.0,0.0,0.0,0.0,0.0,0.0,0.0,0.0,0.0,0.0,0.0,0.0,0.0,0.0,0.0,0.0,0.0,0.0,0.0,4.4421,4.7114,4.8007,4.9727,5.1967,5.4834,5.5884,5.6663,5.7424,5.7514,5.755,5.7695,5.8003,5.8112,5.7913,5.7768,5.755,5.7213,5.7195,5.7195,5.7195,5.7195,5.7195,5.7195,5.7532,5.7532,5.7213,5.755,5.7521,0.0,5.7195,5.7195,5.7195,5.7195,5.7195,0.0,0.0,0.0,0.0,0.0,5.5105,5.4256,5.3462,5.2883,5.2478,5.2132,5.1828,5.1585,5.1505,5.1648,5.1883,5.2273,5.2695,5.312,5.3586,5.3697,5.3697,5.3697,5.3453,5.3067,5.2601,5.2239,5.1963,5.1825,5.0875,0.0,4.9884,4.9284,4.8802,4.8663,4.876,4.8838,4.8838,4.8526,4.8301,4.8301,4.7576,4.6769,4.5975,4.5163,0.0,0.0,0.0,4.2598,4.2117,4.235,0.0,0.0,0.0,4.3588,4.364,0.0,0.0,0.0,4.2889,4.2717,0.0,0.0,0.0,0.0,0.0,0.0,0.0,0.0,0.0,0.0,0.0,0.0,0.0,0.0,0.0,0.0,4.7477,5.0622,5.3675,5.4255,5.5142,5.7224,5.8184,5.8999,5.9789,5.9862,5.9572,5.8854,5.9373,5.9101,5.7677,0.0,0.0,0.0,0.0,5.7466,5.7466,5.7466,5.7466,5.7478,5.8184,5.8166,5.7496,5.8202,5.8148,5.7466,5.7369,5.7333,5.7339,5.7243,5.7195,5.714,5.6416,5.6144,5.6054,5.5305,5.5027,5.49,5.411,0.0,0.0,5.2955,5.2894,5.3089,5.3094,5.3267,5.345,5.345,5.3961,5.4546,5.4546,5.4546,5.4509,5.4418,5.3843,5.3306,5.3214,5.2632,5.2349,5.3067,5.1966,5.1187,5.2,5.0794,4.9986,5.0687,5.0183,4.9697,4.961,4.8916,4.8411,4.832,0.0,0.0,4.6104,4.5292,4.4484,4.369,4.3543,4.3506,4.3506,4.4008,4.4228,4.4044,4.4792,4.5087,4.4859,4.5143,4.5302,4.5264,4.3771,4.346,0.0,0.0,0.0,0.0,0.0,0.0,0.0,0.0,0.0,0.0,0.0,0.0,0.0,0.0,0.0,4.8313,5.1647,5.4393,5.6265,5.7641,5.8631,5.9083,5.9844,6.0652,6.1467,6.1539,6.1467,6.1322,6.0851,6.0435,6.0109,5.9645,5.93,5.9138,5.9138,5.9138,5.9138,5.9138,5.9138,5.9138,0.0,0.0,5.9138,5.93,5.9282,5.9101,5.8456,5.8166,5.8112,5.7466,5.7195,5.7176,5.7032,5.6977,5.6869,5.6072,5.5782,5.5673,5.4925,5.4248,5.3692,5.3547,5.3562,5.3659,5.3701,5.4315,0.0,5.4971,5.5154,5.5365,5.5365,5.5365,5.5194,5.4546,5.4289,5.399,5.3343,5.3086,5.3012,5.3177,5.2412,5.2018,5.2834,5.1623,5.0618,5.0784,5.0674,5.033,4.9679,4.944,4.9087,4.8375,4.8154,4.7746,4.6934,4.6136,4.5314,4.4521,4.3869,4.3506,4.3506,4.3605,4.3875,4.4311,4.4494,4.4786,4.5197,4.5262,4.5302,4.5283,4.4977,4.4901,0.0,0.0,0.0,0.0,0.0,0.0,0.0,0.0,0.0,0.0,0.0,4.1873,0.0,0.0,4.8755,5.1979,5.4508,5.6609,5.8184,5.9445,6.0206,6.0206,6.0905,6.1557,6.1955,6.2361,6.227,6.1467,6.1394,6.105,6.0235,6.0206,6.0025,5.9608,5.9608,5.9608,5.9608,5.9608,5.9608,5.9608,6.0007,5.9989,5.9608,6.0025,5.9989,5.9554,5.8739,5.8402,5.8347,5.7532,5.7195,5.7195,5.7195,5.7195,5.7158,5.6742,5.6597,5.6488,5.5728,5.5239,5.4888,5.4471,5.4414,5.4519,5.4543,5.4943,5.5401,5.5401,5.5797,5.6198,5.6198,5.5891,5.5493,5.5102,5.4399,5.3697,5.3287,5.3196,5.3196,5.3196,5.2871,5.2729,5.3122,5.2535,5.2008,5.2008,5.1665,5.1266,5.0849,5.0445,4.9876,4.9045,4.8953,4.8453,4.7209,4.5984,4.5126,4.4737,4.3938,4.3506,4.3506,4.3662,4.3816,4.3957,4.438,4.4688,4.4844,4.5151,4.5302,4.5302,4.5302,4.5302,0.0,0.0,0.0,0.0,0.0,0.0,0.0,0.0,3.9594,4.3117,4.4589,4.5966,4.8219,5.047,5.2733,5.4979,5.6784,5.8347,5.9645,6.0525,6.1032,6.1032,6.1611,6.2003,6.2003,6.2596,6.2422,6.1123,6.1623,6.143,6.0133,6.067,6.0742,6.0097,6.0079,6.0079,6.0079,6.0079,6.0079,6.0072,6.0724,6.0688,6.0097,6.0742,6.0579,5.9771,5.8818,5.8311,5.8112,5.7466,5.7195,5.7195,5.7195,5.7195,5.7195,5.7195,5.7195,5.7104,5.6452,5.6206,5.6043,5.5414,5.5273,5.5361,5.539,5.5593,5.5824,5.5853,5.6432,5.7036,5.7036,5.6547,5.6025,5.5873,5.4834,5.3856,5.3697,5.355,5.3434,5.3434,5.3306,5.3196,5.3196,5.3196,5.3196,5.3196,5.2656,5.2184,5.2018,5.1431,5.0715,4.9918,4.9697,4.8921,4.7241,4.5906,4.5099,4.4938,4.4176,4.3722,4.3722,4.3835,4.381,4.3594,4.4345,4.4641,4.4476,4.5036,4.5302,4.5302,4.5302,4.5302,3.3815,3.4152,3.5306,3.7328,3.8567,3.9936,0.0,0.0,4.5736,4.6928,4.8375,4.9956,5.1647,5.3349,5.5033,5.6687,5.8884,6.0453,6.0634,6.1358,6.1865,6.1865,6.1949,6.2003,6.2003,6.2082,6.2064,6.1883,6.1949,6.1912,6.1738,6.1829,6.1822,6.1731,6.1731,6.1731,6.1731,6.1731,6.1731,6.1731,6.1822,6.1829,6.1731,6.1822,6.143,6.0579,5.9072,5.7985,5.7339,5.7243,5.7195,5.7195,5.7195,5.7195,5.7195,5.7195,5.7195,5.7195,5.7104,5.6603,5.6,5.5915,5.5903,5.594,5.6055,5.6672,5.7375,5.7506,5.7684,5.7868,5.7868,5.7795,5.7556,5.6835,5.6541,5.6192,5.5493,5.4772,5.4271,5.4271,5.3697,5.3196,5.3196,5.3196,5.3196,5.3196,5.3122,5.2816,5.2092,5.1914,5.156,5.0747,5.0023,4.8921,4.7241,4.6947,4.6535,4.581,4.5016,4.4576,4.4576,4.3926,4.3678,4.3946,4.4268,4.4546,4.4751,4.5115,4.5302,4.5302,4.5302,4.5302,3.7646,3.7823,0.0,0.0,4.1078,4.285,4.438,4.5887,4.758,4.9771,5.1641,5.3367,5.4949,5.6554,5.7997,0.0,6.0145,6.096,6.143,6.1376,6.1304,6.1304,6.0887,6.0978,6.1919,6.2415,6.2505,6.2046,6.2003,6.2003,6.2003,6.2003,6.2003,6.2003,6.2003,6.2003,6.2003,6.2003,6.2003,6.2003,6.2003,6.2003,6.2003,6.2003,6.1557,6.0742,5.959,5.8637,5.7858,5.7387,5.7195,5.7195,5.7195,5.7195,5.7195,5.7195,5.7195,5.7195,5.7195,5.6977,5.6706,5.6706,5.6706,5.6718,5.6756,5.7115,5.7504,5.7559,5.7667,5.778,5.7856,5.7538,5.7116,5.6854,5.6436,5.6002,5.5677,5.5346,5.5102,5.5102,5.4454,5.3898,5.3898,5.3513,5.3196,5.3196,5.3196,5.3086,5.2742,5.2706,5.2399,5.1573,5.0789,4.9834,4.8655,4.8099,4.7471,4.6645,4.5842,4.5406,4.5406,4.508,4.4968,4.5101,4.4951,4.5009,4.5277,4.5093,4.5109,4.5302,4.5302,4.5302,4.0335,0.0,0.0,4.1703,4.3814,4.6041,4.6831,4.8182,5.003,5.2766,5.4675,5.6277,5.7623,5.8993,6.0109,6.0706,6.0996,6.1267,6.163,6.1177,6.0634,6.0181,5.9826,5.997,6.0923,6.1933,6.2386,6.2028,6.2003,6.2003,6.2003,6.2003,6.2003,6.2003,6.2003,6.2003,6.2003,6.2003,6.2003,6.2003,6.2003,6.2003,6.1985,6.1774,6.1358,6.076,5.9946,5.9138,5.8347,5.7768,5.7394,5.7195,5.7195,5.7195,5.7195,5.7195,5.7195,5.7195,5.7195,5.7195,5.7195,5.7195,5.7195,5.7195,5.7195,5.7282,5.7394,5.7394,5.7504,5.7637,5.7762,5.7365,5.6955,5.71,5.6699,5.6264,5.6264,5.6093,5.5928,5.5928,5.5286,5.4735,5.4735,5.4064,5.3526,5.3526,5.3343,5.3196,5.3196,5.3196,5.2889,5.2092,5.1481,5.0807,5.0004,4.9352,4.8645,4.7838,4.7021,4.6466,4.6246,4.6012,4.5902,4.5902,4.5653,4.5679,4.5961,4.5428,4.5324,4.5624,4.5397,4.5302,0.0,0.0,4.398,4.4764,4.7456,5.0135,5.0944,5.2715,5.4649,5.6309,5.7527,5.8546,5.9373,6.0206,6.076,6.0797,6.1448,6.1702,6.0942,6.0815,6.0217,5.8649,5.9138,5.93,0.0,5.9934,6.1195,6.193,6.2003,6.2003,6.2003,6.2003,6.2003,6.2003,6.2003,6.2003,6.2003,6.2003,6.2003,6.2003,6.2003,6.2003,6.1967,6.1195,6.0815,6.076,5.9946,5.9138,5.8402,5.8365,5.7895,5.7195,5.7195,5.7195,5.7195,5.7195,5.7195,5.7195,5.7195,5.7195,5.7195,5.7195,5.7195,5.7195,5.7195,5.7282,5.7394,5.7394,5.7504,5.7637,5.7762,5.7779,5.779,5.7931,5.7941,5.7929,5.7929,5.7312,5.6761,5.6761,5.6106,5.5567,5.5567,5.49,5.4363,5.4363,5.3697,5.3196,5.3196,5.3196,5.2889,5.2092,5.1987,5.1633,5.0834,5.0742,5.038,4.9569,4.8715,4.7874,4.7094,4.6301,4.5902,4.5902,4.6214,4.6536,4.6854,4.6316,4.6209,4.644,4.5662,4.5302,4.2853,0.0,4.6266,4.8403,5.0567,5.2352,5.3127,5.4799,5.6196,5.6196,5.6374,5.6468,5.6199,5.6941,5.7629,5.7629,5.9626,6.0923,6.0109,6.0007,5.9458,5.7979,5.791,0.0,0.0,0.0,0.0,6.05,6.0952,6.1248,6.1329,6.1766,6.1794,6.1358,6.1773,6.1787,6.1351,6.1787,6.2003,6.2003,6.2003,6.2003,6.1985,6.172,6.1593,6.1521,6.0188,5.9445,5.9101,5.8039,5.7442,5.7195,5.7195,5.7195,5.7195,5.7195,5.7195,5.7195,5.7195,5.7195,5.7195,5.7195,5.7195,5.7195,5.7195,5.7226,5.7275,5.7275,5.7357,5.751,5.7637,5.7733,5.7827,5.7968,5.8002,5.8002,5.8002,5.7795,5.7593,5.7593,5.695,5.64,5.64,5.5726,5.5029,5.4473,5.3715,5.3196,5.3196,5.3196,5.3104,5.2834,5.2797,5.2467,5.167,5.1596,5.1248,5.0458,4.9614,4.9031,4.877,4.7939,4.7494,4.7494,4.7077,4.7028,4.7352,4.6873,4.6763,4.7023,4.6974,4.6956,4.496,4.7017,4.882,5.0907,5.2936,5.4461,5.4675,5.5968,5.682,5.5848,5.5396,5.5047,5.4644,5.4661,5.4949,5.5504,5.7091,5.8268,5.8311,5.8136,5.7742,5.705,5.7175,5.6958,0.0,0.0,0.0,5.9395,6.0079,6.0615,6.0906,6.1378,6.1554,6.1354,6.1547,6.1547,6.1365,6.1787,6.2003,6.2003,6.2003,6.2003,6.2003,6.2003,6.2003,6.193,6.0905,6.0133,5.9518,5.8486,5.7713,5.7195,5.7195,5.7195,5.7195,5.7195,5.7195,5.7195,5.7195,5.7195,5.7195,5.7195,5.7195,5.7195,5.7195,5.7195,5.7195,5.7195,5.7257,5.7351,5.748,5.7595,5.7703,5.7892,5.7933,5.7945,5.7991,5.8002,5.8002,5.8002,5.7574,5.722,5.722,5.6565,5.5666,5.4564,5.3953,5.3526,5.3232,5.3196,5.3196,5.3196,5.3196,5.2999,5.2472,5.2435,5.2092,5.1279,5.0739,5.0335,5.0041,4.9481,4.9054,4.8723,4.8246,4.8011,4.8029,4.7553,4.748,4.7778,4.7788,4.7791,4.6541,4.9245,5.1516,5.2411,5.463,5.6373,5.5646,5.6232,5.6579,5.5294,5.4502,5.4137,0.0,0.0,5.2842,5.4448,5.4285,5.4442,5.5926,5.5705,5.5541,0.0,0.0,0.0,0.0,0.0,0.0,5.8588,0.0,6.0106,6.0725,6.0899,6.1275,6.1882,6.1351,6.1351,6.1937,6.1971,6.2003,6.2003,6.2003,6.2003,6.2003,6.2003,6.2003,6.2003,6.1919,6.1014,5.959,5.9518,5.8583,5.7195,5.7195,5.7195,5.7195,5.7195,5.7195,5.7195,5.7195,5.7195,5.7195,5.7195,5.7195,5.7195,5.7195,5.7195,5.7195,5.7195,5.7195,5.7232,5.7381,5.74,5.7474,5.7733,5.7792,5.7827,5.7968,5.7991,5.7991,5.8002,5.8002,5.8002,5.8002,5.7367,5.6321,5.4766,5.4528,5.4192,5.3306,5.3196,5.3196,5.3196,5.3196,5.3196,5.3196,5.3196,5.2871,5.211,5.2018,5.167,5.0894,5.0815,5.0417,4.9577,4.9587,4.9347,4.8832,4.8371,4.8328,4.8614,4.8144,4.7925,4.9946,5.1797,5.3121,5.5224,5.5994,5.603,5.5307,5.4946,5.4371,5.2907,5.0781,4.902,0.0,0.0,0.0,5.196,5.5015,0.0,5.7863,5.8756,0.0,5.6677,0.0,5.7596,5.5727,5.6453,0.0,0.0,5.8251,5.9306,6.0169,6.0705,6.0849,6.0524,6.1315,6.1594,6.1267,6.1752,6.2003,6.2003,6.2003,6.2003,6.2003,6.2003,6.2003,6.1937,6.0724,5.9989,5.9518,5.8311,5.7575,5.7195,5.7195,5.7195,5.7195,5.7195,5.7195,5.7195,5.7195,5.7195,5.7195,5.7195,5.7195,5.7195,5.7195,5.7195,5.7195,5.7195,5.7264,5.7369,5.7382,5.7553,5.7691,5.7661,5.7727,5.7804,5.7839,5.7845,5.7886,5.7979,5.8002,5.8002,5.8002,5.7831,5.7354,5.6339,5.6192,5.5458,5.3453,5.3196,5.3196,5.3196,5.3196,5.3196,5.3196,5.3196,5.3104,5.2907,5.2325,5.1908,5.1706,5.1114,5.071,5.0472,4.9894,4.9531,4.9406,4.9137,4.9044,4.9137,4.9496,4.9669,5.269,5.4118,5.4962,5.6652,5.6858,5.609,5.4023,5.3277,5.2252,4.9551,4.7881,0.0,0.0,0.0,0.0,0.0,0.0,0.0,5.726,5.8018,5.8188,0.0,5.8531,0.0,5.6295,5.7279,5.7792,0.0,5.7829,5.8607,5.944,6.016,6.0514,6.0437,6.1173,6.1519,6.1433,6.1235,6.1426,6.2003,6.1699,6.1713,6.2003,6.2003,6.1811,6.143,0.0,5.9735,5.8993,5.8094,5.7521,5.7195,5.7195,5.7195,5.7195,5.7195,5.7195,5.7195,5.7195,5.7195,5.7195,5.7195,5.7195,5.7195,5.7195,5.7195,5.7195,5.7195,5.7245,5.7301,5.7301,5.7412,5.7541,5.7522,5.7577,5.7643,5.7703,5.7709,5.775,5.7898,5.7962,5.8002,5.8002,5.8002,5.7721,5.6926,5.6792,5.6064,5.399,5.3733,5.3581,5.3232,5.3196,5.3196,5.3196,5.3196,5.3196,5.3196,5.2779,5.2527,5.2527,5.2082,5.1696,5.1334,5.0532,5.0019,4.9773,4.9455,4.9386,4.953,5.0057,5.0299,5.4916,5.6126,5.6678,5.7213,5.707,5.586,5.2373,5.1333,5.0006,4.6024,0.0,4.5621,4.4316,4.5962,4.7885,4.8912,0.0,5.2767,5.5813,5.6097,5.6656,5.8436,5.9414,5.9142,5.7113,5.8648,5.9241,5.7902,5.7987,5.8355,5.893,5.9721,6.0464,6.1136,6.1062,6.1239,6.1738,6.0661,6.0732,6.185,6.1372,6.143,6.2003,6.2003,6.1557,6.0797,6.0688,0.0,5.8402,5.8275,5.7822,5.7195,5.7195,5.7195,5.7195,5.7195,5.7195,5.7195,5.7195,5.7195,5.7195,5.7195,5.7195,5.7195,5.7195,5.7195,5.7195,5.7195,5.7195,5.7195,5.7195,5.7201,5.7245,5.7344,5.74,5.7425,5.7553,5.7607,5.7661,5.7774,5.7916,5.8002,5.8002,5.8002,5.7758,5.7055,5.6963,5.6413,5.4913,5.4528,5.4082,5.3287,5.3196,5.3196,5.3196,5.3196,5.3196,5.3196,5.3196,5.3196,5.3196,5.3196,5.2871,5.2165,5.1371,5.0706,5.0173,4.969,4.9585,4.9813,5.0144,5.0299,5.6538,5.7295,5.7416,5.7516,5.5807,5.353,5.1438,4.9207,0.0,0.0,0.0,4.4073,4.22,4.4512,4.7437,4.9687,0.0,0.0,0.0,0.0,5.9011,0.0,0.0,0.0,0.0,0.0,0.0,0.0,0.0,5.9742,5.9784,6.0551,6.1292,6.1965,6.1355,6.0789,6.0354,6.0669,6.0939,6.1188,6.1622,6.1888,6.2003,6.2003,6.1557,6.076,6.0097,0.0,5.8347,5.7677,5.7339,5.7195,5.7195,5.7195,5.7195,5.7195,5.7195,5.7195,5.7195,5.7195,5.7195,5.7195,5.7195,5.7195,5.7195,5.7195,5.7195,5.7195,5.7195,5.7195,5.7195,5.7276,5.7338,5.7269,5.7313,5.7418,5.7437,5.7613,5.7768,5.7792,5.7916,5.8002,5.8002,5.8002,5.7947,5.7813,5.7795,5.7446,5.6504,5.522,5.4082,5.3287,5.3196,5.3196,5.3196,5.3196,5.3196,5.3196,5.3196,5.3196,5.3196,5.3196,5.3122,5.2999,5.2197,5.1553,5.1064,5.0549,5.0128,4.9813,5.0144,5.0299,5.7794,5.8457,5.8558,5.7793,5.5471,5.2665,4.9875,0.0,0.0,0.0,0.0,4.274,4.1527,0.0,0.0,0.0,0.0,0.0,0.0,0.0,0.0,0.0,0.0,0.0,0.0,0.0,0.0,0.0,0.0,5.8939,5.8918,5.9602,6.0324,6.1026,6.0309,6.0107,6.0531,6.0115,6.0442,6.1526,6.1487,6.1664,6.2003,6.2003,6.1557,6.0779,6.038,0.0,5.8365,5.7985,5.7587,5.7195,5.7195,5.7195,5.7195,5.7195,5.7195,5.7195,5.7195,5.7195,5.7195,5.7195,5.7195,5.7195,5.7195,5.7195,5.7195,5.7195,5.7195,5.7195,5.7195,5.7257,5.727,5.7225,5.7257,5.7307,5.7307,5.7516,5.7697,5.7697,5.7851,5.8002,5.8002,5.8002,5.8002,5.8002,5.8002,5.7562,5.6326,5.5506,5.4711,5.3917,5.3453,5.3196,5.3196,5.3196,5.3196,5.3196,5.3196,5.3196,5.3196,5.3196,5.3196,5.3196,5.2417,5.1977,5.1918,5.0971,5.0708,5.1095,5.0541,5.0547,5.8332,5.9114,5.9533,5.7639,5.4912,5.1821,4.8454,4.5282,0.0,0.0,4.1185,4.1763,4.1208,0.0,0.0,0.0,0.0,0.0,0.0,0.0,0.0,0.0,0.0,0.0,0.0,0.0,0.0,0.0,0.0,0.0,5.8348,5.8866,5.9399,6.001,5.9291,5.9428,6.0544,5.9601,6.0036,6.1787,6.1401,6.1498,6.2003,6.2003,6.1557,6.0797,6.0622,0.0,0.0,5.8202,5.7768,5.7195,5.7195,5.7195,5.7195,5.7195,5.7195,5.7195,5.7195,5.7195,5.7195,5.7195,5.7195,5.7195,5.7195,5.7195,5.7195,5.7195,5.7195,5.7195,5.7195,5.7195,5.7195,5.7195,5.7195,5.7195,5.7195,5.74,5.7607,5.7607,5.7809,5.8002,5.8002,5.8002,5.8002,5.8002,5.8002,5.7543,5.6282,5.597,5.5616,5.4981,5.3893,5.3196,5.3196,5.3196,5.3196,5.3196,5.3196,5.3196,5.3196,5.3196,5.3196,5.3196,5.2582,5.2346,5.2507,5.1513,5.1461,5.2279,5.1281,5.12,5.7445,5.8719,5.9846,5.6587,5.3113,4.9943,4.7836,0.0,0.0,4.0416,4.0984,4.1467,4.0639,4.2004,0.0,0.0,0.0,4.8559,0.0,0.0,0.0,0.0,0.0,0.0,0.0,0.0,0.0,0.0,0.0,0.0,5.9831,5.9895,5.9958,6.0091,5.9314,5.896,5.9095,5.9626,6.0297,6.1097,6.165,6.1937,6.2003,6.2003,6.1557,6.076,6.0025,0.0,0.0,5.7605,5.7261,5.7195,5.7195,5.7195,5.7195,5.7195,5.7195,5.7195,5.7195,5.7195,5.7195,5.7195,5.7195,5.7195,5.7195,5.7195,5.7195,5.7195,5.7195,5.7195,5.7195,5.7195,5.7195,5.7195,5.7195,5.7195,5.7195,5.74,5.7607,5.7607,5.7809,5.8002,5.8002,5.8002,5.8002,5.8002,5.8002,5.7947,5.78,5.7134,5.6651,5.6596,5.4554,5.3196,5.3196,5.3196,5.3196,5.3196,5.3196,5.3196,5.3196,5.3196,5.3196,5.3196,5.3122,5.2907,5.2507,5.2676,5.2609,5.2298,5.2488,5.262,5.6332,5.8323,5.9774,5.5897,5.2394,4.9466,4.7846,0.0,4.099,4.0699,4.048,4.041,4.0715,4.1313,4.2398,0.0,0.0,0.0,0.0,0.0,0.0,0.0,0.0,0.0,0.0,0.0,0.0,0.0,0.0,0.0,5.8734,5.8752,5.8744,5.876,5.8866,5.9112,5.9553,6.0258,6.0942,6.1615,6.1882,6.2003,6.2003,6.2003,6.1557,6.0779,6.0453,0.0,0.0,5.8058,5.7641,5.7195,5.7195,5.7195,5.7195,5.7195,5.7195,5.7195,5.7195,5.7195,5.7195,5.7195,5.7195,5.7195,5.7195,5.7195,5.7195,5.7195,5.7195,5.7195,5.7195,5.7195,5.7195,5.7195,5.7195,5.7195,5.7195,5.7356,5.7492,5.7589,5.775,5.791,5.7991,5.8002,5.8002,5.8002,5.8002,5.7831,5.733,5.7,5.6614,5.613,5.4785,5.3917,5.3917,5.3471,5.3196,5.3196,5.3196,5.3196,5.3196,5.3196,5.3196,5.3196,5.3196,5.3109,5.2929,5.2963,5.3163,5.3486,5.3016,5.3075,5.4715,5.7054,5.878,5.5024,5.1764,4.9089,0.0,0.0,4.0596,4.0935,3.9958,3.9454,4.0758,4.0926,4.1492,0.0,0.0,4.3595,0.0,0.0,0.0,0.0,0.0,0.0,0.0,0.0,0.0,0.0,0.0,0.0,5.7891,5.8091,5.82,5.82,5.8866,5.9569,6.0282,6.0759,6.1343,6.2003,6.2003,6.2003,6.1985,6.1749,6.134,6.076,6.0296,0.0,0.0,5.8148,5.7713,5.7195,5.7195,5.7195,5.7195,5.7195,5.7195,5.7195,5.7195,5.7195,5.7195,5.7195,5.7195,5.7195,5.7195,5.7195,5.7195,5.7195,5.7195,5.7195,5.7195,5.7195,5.7195,5.7195,5.7195,5.7195,5.7195,5.7313,5.7437,5.751,5.7679,5.7809,5.7862,5.7903,5.7945,5.7945,5.7945,5.7754,5.7214,5.7147,5.695,5.6374,5.5592,5.4913,5.4436,5.388,5.3453,5.3214,5.3196,5.3196,5.3196,5.3196,5.3196,5.3196,5.3196,5.3241,5.3357,5.336,5.3752,5.4421,5.3836,5.3894,5.2434,5.4589,5.6661,5.3821,5.0995,4.8495,0.0,0.0,4.076,4.0965,3.9503,3.8781,4.0651,4.0726,4.1021,4.2656,4.3119,0.0,0.0,0.0,0.0,0.0,0.0,0.0,0.0,0.0,0.0,0.0,0.0,0.0,5.7891,5.852,5.8892,5.8892,5.9594,6.0305,6.0976,6.1001,6.1343,6.2003,6.2003,6.2003,6.1967,6.1177,6.0815,0.0,0.0,0.0,0.0,5.7532,5.7213,5.7195,5.7195,5.7195,5.7195,5.7195,5.7195,5.7195,5.7195,5.7195,5.7195,5.7195,5.7195,5.7195,5.7195,5.7195,5.7195,5.7195,5.7195,5.7195,5.7195,5.7195,5.7195,5.7195,5.7195,5.7195,5.7195,5.7313,5.7394,5.7394,5.7619,5.7756,5.7631,5.7715,5.7798,5.7798,5.7798,5.7845,5.7967,5.7997,5.7984,5.7984,5.7257,5.6137,5.4546,5.4399,5.4051,5.3251,5.3196,5.3196,5.3196,5.3196,5.3196,5.3196,5.3196,5.3354,5.3701,5.4082,5.4471,5.4799,5.5188,5.538,4.9407,5.138,5.2789,5.0469,4.8297,4.6391,4.5141,0.0,4.0274,3.9972,3.8997,3.8701,4.0352,4.0574,4.1388,4.41,4.414,0.0,0.0,0.0,0.0,0.0,0.0,0.0,0.0,0.0,0.0,0.0,0.0,0.0,5.7891,5.9003,5.9413,5.8917,6.006,6.0789,6.1008,6.1451,6.1794,6.2003,6.2003,6.172,6.1177,6.0923,6.0206,0.0,0.0,0.0,0.0,5.7303,5.7195,5.7195,5.7195,5.7195,5.7195,5.7195,5.7195,5.7195,5.7195,5.7195,5.7195,5.7195,5.7195,5.7195,5.7195,5.7195,5.7195,5.7195,5.7195,5.7195,5.7195,5.7195,5.7195,5.7195,5.7195,5.7195,5.7195,5.7226,5.7282,5.7375,5.748,5.7534,5.7595,5.7637,5.7667,5.7667,5.7739,5.7809,5.7869,5.795,5.8002,5.8002,5.7776,5.7189,5.6137,5.5036,5.4289,5.4045,5.3489,5.3196,5.3196,5.3196,5.3196,5.3196,5.3196,5.3359,5.3705,5.4105,5.461,5.5207,5.5338,5.5396,0.0,4.862,4.9855,4.8359,4.6476,0.0,0.0,0.0,3.9797,3.9478,3.8762,3.8671,4.0229,4.0496,4.1352,4.3969,4.4066,0.0,0.0,0.0,0.0,0.0,0.0,0.0,0.0,0.0,0.0,0.0,0.0,0.0,5.7891,5.8977,5.9371,5.8917,6.0504,6.1379,6.1379,6.1794,6.2003,6.2003,6.2003,6.1575,6.0797,6.0489,5.9626,0.0,0.0,0.0,0.0,5.7195,5.7195,5.7195,5.7195,5.7195,5.7195,5.7195,5.7195,5.7195,5.7195,5.7195,5.7195,5.7195,5.7195,5.7195,5.7195,5.7195,5.7195,5.7195,5.7195,5.7195,5.7195,5.7195,5.7195,5.7195,5.7195,5.7195,5.7195,5.7195,5.7213,5.7319,5.7375,5.74,5.7437,5.748,5.751,5.751,5.7643,5.7745,5.7786,5.7921,5.8002,5.8002,5.8002,5.7795,5.7293,5.6069,5.506,5.4436,5.3935,5.3526,5.3214,5.3196,5.3196,5.3196,5.3196,5.3435,5.3934,5.445,5.4944,5.5396,5.5396,5.5396,0.0,4.6,0.0,0.0,0.0,0.0,0.0,0.0,0.0,3.9323,3.8726,3.8671,4.0229,4.0474,4.103,4.2796,4.325,0.0,0.0,0.0,0.0,0.0,0.0,0.0,0.0,0.0,0.0,0.0,0.0,0.0,5.7891,5.8537,5.8926,5.8977,6.0894,6.193,6.193,6.193,6.195,6.2003,6.2003,6.1557,6.0688,5.9934,5.9119,0.0,0.0,0.0,0.0,5.7195,5.7195,5.7195,5.7195,5.7195,5.7195,5.7195,5.7195,5.7195,5.7195,5.7195,5.7195,5.7195,5.7195,5.7195,5.7195,5.7195,5.7195,5.7195,5.7195,5.7195,5.7195,5.7195,5.7195,5.7195,5.7195,5.7195,5.7195,5.7195,5.7195,5.7195,5.7295,5.7356,5.7213,5.7295,5.74,5.7394,5.7504,5.7649,5.778,5.7921,5.8002,5.8002,5.8002,5.8002,5.8002,5.7257,5.6137,5.4583,5.4436,5.4045,5.3232,5.3196,5.3196,5.3196,5.3259,5.3616,5.4292,5.5039,5.5396,5.5396,5.5396,5.5396,4.0456,0.0,4.204,4.1892,4.1455,4.0906,0.0,0.0,0.0,0.0,0.0,3.8671,4.0229,4.021,4.1009,4.421,4.4497,4.4795,0.0,0.0,0.0,0.0,0.0,0.0,0.0,0.0,0.0,0.0,0.0,5.7891,5.7891,5.8537,5.9154,5.9725,6.0714,6.1239,6.1239,6.1239,6.1498,6.2003,6.2003,6.1267,5.988,5.9699,5.883,0.0,0.0,0.0,5.7195,5.7195,5.7195,5.7195,5.7195,5.7195,5.7195,5.7195,5.7195,5.7195,5.7195,5.7195,5.7195,5.7195,5.7195,5.7195,5.7195,5.7195,5.7195,5.7195,5.7195,5.7195,5.7195,5.7195,5.7195,5.7195,5.7195,5.7195,5.7195,5.7195,5.7195,5.7195,5.7238,5.7244,5.7213,5.7238,5.727,5.7375,5.7504,5.7649,5.778,5.7921,5.8002,5.8002,5.8002,5.8002,5.8002,5.7257,5.6376,5.5383,5.4735,5.4045,5.3232,5.3196,5.3196,5.3196,5.3747,5.4133,5.4292,5.5039,5.5396,5.5396,5.5396,5.5396,3.8852,3.9788,4.0767,4.0878,4.0544,4.0152,0.0,0.0,0.0,0.0,0.0,0.0,3.9936,3.9967,4.0812,4.3917,4.4328,0.0,0.0,0.0,0.0,0.0,0.0,0.0,0.0,0.0,0.0,0.0,0.0,5.8028,5.8335,5.8703,5.9238,5.9974,6.0344,6.0845,6.1451,6.1451,6.1643,6.2003,6.163,6.0797,5.959,5.921,5.8365,0.0,0.0,0.0,5.7195,5.7195,5.7195,5.7195,5.7195,5.7195,5.7195,5.7195,5.7195,5.7195,5.7195,5.7195,5.7195,5.7195,5.7195,5.7195,5.7195,5.7195,5.7195,5.7195,5.7195,5.7195,5.7195,5.7195,5.7195,5.7195,5.7195,5.7195,5.7195,5.7195,5.7195,5.7195,5.7195,5.7195,5.7195,5.7195,5.7257,5.7369,5.7504,5.7649,5.778,5.7921,5.8002,5.8002,5.8002,5.8002,5.8002,5.7257,5.6449,5.5658,5.5199,5.4418,5.3251,5.3196,5.3272,5.3435,5.3989,5.4372,5.4532,5.5125,5.5396,5.5396,5.5396,5.5396,3.8349,3.9883,4.1427,4.136,4.079,4.0256,4.0316,0.0,0.0,0.0,0.0,0.0,0.0,0.0,0.0,0.0,0.0,0.0,0.0,0.0,0.0,0.0,0.0,0.0,0.0,0.0,0.0,0.0,0.0,5.8191,5.8858,5.8798,5.9171,6.0117,5.9932,6.0453,6.1797,6.1848,6.1902,6.1985,6.1177,6.0387,5.9572,5.8764,5.7967,5.7195,0.0,0.0,5.7195,5.7195,5.7195,5.7195,5.7195,5.7195,5.7195,5.7195,5.7195,5.7195,5.7195,5.7195,5.7195,5.7195,5.7195,5.7195,5.7195,5.7195,5.7195,5.7195,5.7195,5.7195,5.7195,5.7195,5.7195,5.7195,5.7195,5.7195,5.7195,5.7195,5.7195,5.7195,5.7195,5.7195,5.7195,5.7195,5.7257,5.7369,5.7504,5.7649,5.778,5.7921,5.8002,5.8002,5.8002,5.8002,5.8002,5.7257,5.6449,5.5658,5.5475,5.4748,5.3269,5.3196,5.3367,5.3696,5.4097,5.4463,5.4799,5.52,5.5396,5.5396,5.5396,5.5396,3.9034,4.0411,4.1347,4.0066,4.0103,4.0302,3.9704,0.0,0.0,0.0,0.0,0.0,0.0,0.0,0.0,0.0,0.0,0.0,0.0,0.0,0.0,0.0,0.0,0.0,0.0,0.0,0.0,0.0,0.0,5.8191,5.8858,5.8352,5.89,6.0789,5.9633,5.9625,6.0971,6.1095,6.1437,6.1985,6.1177,6.0387,5.9572,5.8764,5.7967,5.7195,0.0,5.7195,5.7195,5.7195,5.7195,5.7195,5.7195,5.7195,5.7195,5.7195,5.7195,5.7195,5.7195,5.7195,5.7195,5.7195,5.7195,5.7195,5.7195,5.7195,5.7195,5.7195,5.7195,5.7195,5.7195,5.7195,5.7195,5.7195,5.7195,5.7195,5.7195,5.7195,5.7195,5.7195,5.7195,5.7195,5.7195,5.7195,5.7257,5.7369,5.7504,5.7649,5.778,5.7921,5.8002,5.8002,5.8002,5.8002,5.8002,5.7257,5.6449,5.5658,5.4955,5.4179,5.3232,5.3196,5.3367,5.3696,5.4097,5.4463,5.4799,5.52,5.5396,5.5396,5.5396,5.5396,3.8653,3.9872,4.0877,4.0175,4.0717,4.1275,0.0,0.0,0.0,0.0,0.0,0.0,0.0,0.0,0.0,0.0,0.0,0.0,0.0,0.0,0.0,0.0,0.0,0.0,0.0,0.0,0.0,0.0,0.0,0.0,5.7711,5.781,5.8424,5.9723,5.91,5.9209,6.0138,6.0214,6.0394,6.0706,6.0333,5.9735,5.892,5.8112,5.755,5.7195,0.0,5.7195,5.7195,5.7195,5.7195,5.7195,5.7195,5.7195,5.7195,5.7195,5.7195,5.7195,5.7195,5.7195,5.7195,5.7195,5.7195,5.7195,5.7195,5.7195,5.7195,5.7195,5.7195,5.7195,5.7195,5.7195,5.7195,5.7195,5.7195,5.7195,5.7195,5.7195,5.7195,5.7195,5.7195,5.7195,5.7195,5.7195,5.7257,5.7369,5.7504,5.7649,5.778,5.7921,5.8002,5.8002,5.8002,5.8002,5.8002,5.7257,5.6266,5.5029,5.4197,5.3581,5.3214,5.3196,5.3461,5.4016,5.4202,5.4574,5.5127,5.5315,5.5396,5.5396,5.5396,5.5396,3.8689,3.9745,4.0786,4.0786,0.0,4.2345,0.0,0.0,0.0,0.0,0.0,0.0,0.0,0.0,0.0,0.0,0.0,0.0,0.0,0.0,0.0,0.0,0.0,0.0,0.0,0.0,0.0,0.0,0.0,0.0,5.6949,5.7318,5.7958,5.8871,5.8576,5.8689,5.9312,5.9319,5.9409,5.9608,5.9409,5.8993,5.8365,5.7575,5.7195,5.7195,5.7195,5.7195,5.7195,5.7195,5.7195,5.7195,5.7195,5.7195,5.7195,5.7195,5.7195,5.7195,5.7195,5.7195,5.7195,5.7195,5.7195,5.7195,5.7195,5.7195,5.7195,5.7195,5.7195,5.7195,5.7195,5.7195,5.7195,5.7195,5.7195,5.7195,5.7195,5.7195,5.7195,5.7195,5.7195,5.7195,5.7195,5.7195,5.7257,5.7369,5.7504,5.7649,5.778,5.7921,5.8002,5.8002,5.8002,5.7929,5.7721,5.7147,5.6192,5.4766,5.3752,5.3196,5.3196,5.3196,5.3556,5.4294,5.4306,5.4654,5.5396,5.5396,5.5396,5.5396,5.5396,5.5396,4.0143,4.0967,4.1614,4.1614,0.0,0.0,0.0,0.0,0.0,0.0,0.0,0.0,0.0,0.0,0.0,0.0,0.0,0.0,0.0,0.0,0.0,0.0,0.0,0.0,0.0,0.0,0.0,0.0,0.0,0.0,5.7561,5.7035,5.7561,5.946,5.8217,5.7816,5.8486,5.8492,5.8854,5.959,5.8836,5.8456,5.8365,5.7575,5.7195,5.7195,5.7195,5.7195,5.7195,5.7195,5.7195,5.7195,5.7195,5.7195,5.7195,5.7195,5.7195,5.7195,5.7195,5.7195,5.7195,5.7195,5.7195,5.7195,5.7195,5.7195,5.7195,5.7195,5.7195,5.7195,5.7195,5.7195,5.7195,5.7195,5.7195,5.7195,5.7195,5.7195,5.7195,5.7195,5.7195,5.7195,5.7195,5.7195,5.7257,5.7369,5.7504,5.7649,5.778,5.7921,5.8002,5.8002,5.8002,5.7703,5.6945,5.6835,5.6431,5.5567,5.4064,5.3196,5.3196,5.3196,5.3556,5.4294,5.4306,5.4654,5.5396,5.5396,5.5396,5.5396,5.5396,5.5396,3.9731,4.0736,4.1578,4.1076,0.0,0.0,0.0,0.0,0.0,0.0,0.0,0.0,0.0,0.0,0.0,0.0,0.0,0.0,0.0,0.0,0.0,0.0,0.0,0.0,0.0,0.0,0.0,0.0,0.0,0.0,5.6277,5.6432,5.6846,5.7541,5.7014,5.7023,5.7659,5.7641,5.7804,5.8112,5.8311,5.8148,5.7641,5.7333,5.7195,5.7195,5.7195,5.7195,5.7195,5.7195,5.7195,5.7195,5.7195,5.7195,5.7195,5.7195,5.7195,5.7195,5.7195,5.7195,5.7195,5.7195,5.7195,5.7195,5.7195,5.7195,5.7195,5.7195,5.7195,5.7195,5.7195,5.7195,5.7195,5.7195,5.7195,5.7195,5.7195,5.7195,5.7195,5.7195,5.7195,5.7195,5.7195,5.7195,5.7257,5.7369,5.7504,5.7649,5.778,5.7921,5.8002,5.8002,5.8002,5.7886,5.7574,5.7092,5.6669,5.6363,5.5304,5.4473,5.3972,5.4143,5.4259,5.4298,5.4503,5.4874,5.5396,5.5396,5.5396,5.5396,5.5396,5.5396,3.9464,4.0342,4.118,0.0,0.0,0.0,0.0,0.0,0.0,0.0,0.0,0.0,0.0,0.0,0.0,0.0,0.0,0.0,0.0,0.0,0.0,0.0,0.0,0.0,0.0,0.0,0.0,0.0,0.0,0.0,0.0,5.6163,5.6471,5.6573,5.6575,5.6785,5.7206,5.7195,5.7195,5.7213,5.775,5.7732,5.7195,5.7195,5.7195,5.7195,5.7195,5.7195,5.7195,5.7195,5.7195,5.7195,5.7195,5.7195,5.7195,5.7195,5.7195,5.7195,5.7195,5.7195,5.7195,5.7195,5.7195,5.7195,5.7195,5.7195,5.7195,5.7195,5.7195,5.7195,5.7195,5.7195,5.7195,5.7195,5.7195,5.7195,5.7195,5.7195,5.7195,5.7195,5.7195,5.7195,5.7195,5.7195,5.7251,5.7443,5.7547,5.7667,5.7833,5.795,5.8002,5.8002,5.8002,5.8002,5.8002,5.7501,5.7183,5.7183,5.6662,5.5763,5.4454,5.4726,5.4713,5.4317,5.4631,5.499,5.5396,5.5667,5.5785,5.5785,5.6068,5.6183,3.9609,3.9948,4.0496,0.0,0.0,0.0,0.0,0.0,0.0,0.0,0.0,0.0,0.0,0.0,0.0,0.0,0.0,0.0,0.0,0.0,0.0,0.0,0.0,0.0,0.0,0.0,0.0,0.0,0.0,0.0,0.0,5.6311,5.6575,5.7176,5.7195,5.7195,5.7195,5.7195,5.7195,5.7195,5.7195,5.7195,5.7195,5.7195,5.7195,5.7195,5.7195,5.7195,5.7195,5.7195,5.7195,5.7195,5.7195,5.7195,5.7195,5.7195,5.7195,5.7195,5.7195,5.7195,5.7195,5.7195,5.7195,5.7195,5.7195,5.7195,5.7195,5.7195,5.7195,5.7195,5.7195,5.7195,5.7195,5.7195,5.7195,5.7195,5.7195,5.7195,5.7195,5.7195,5.7195,5.7195,5.7195,5.7195,5.7282,5.7565,5.7607,5.7697,5.7968,5.8002,5.8002,5.8002,5.8002,5.8002,5.8002,5.8002,5.8002,5.8002,5.8002,5.6914,5.4509,5.4749,5.4718,5.4317,5.4635,5.4994,5.5396,5.6208,5.6594,5.6613,5.7488,5.7886,3.9609,3.9948,0.0,0.0,0.0,0.0,0.0,0.0,0.0,0.0,0.0,0.0,0.0,0.0,0.0,0.0,0.0,0.0,0.0,0.0,0.0,0.0,0.0,0.0,0.0,0.0,0.0,0.0,0.0,0.0,0.0,5.6928,5.7023,5.7188,5.7195,5.7195,5.7195,5.7195,5.7195,5.7195,5.7195,5.7195,5.7195,5.7195,5.7195,5.7195,5.7195,5.7195,5.7195,5.7195,5.7195,5.7195,5.7195,5.7195,5.7195,5.7195,5.7195,5.7195,5.7195,5.7195,5.7195,5.7195,5.7195,5.7195,5.7195,5.7195,5.7195,5.7195,5.7195,5.7195,5.7195,5.7195,5.7195,5.7195,5.7195,5.7195,5.7195,5.7195,5.7195,5.7195,5.7195,5.7195,5.7195,5.7195,5.7251,5.7425,5.7467,5.7565,5.7815,5.7945,5.8002,5.8002,5.8002,5.8002,5.8002,5.8002,5.8002,5.8002,5.8002,5.7176,5.5322,5.5844,5.5586,5.4321,5.4915,5.5276,5.5396,5.5648,5.6052,5.6613,5.6861,5.7317,3.9518,0.0,0.0,0.0,0.0,0.0,0.0,0.0,0.0,0.0,0.0,0.0,0.0,0.0,0.0,0.0,0.0,0.0,0.0,0.0,0.0,0.0,0.0,0.0,0.0,0.0,0.0,0.0,0.0,0.0,0.0,5.7195,5.7195,5.7195,5.7195,5.7195,5.7195,5.7195,5.7195,5.7195,5.7195,5.7195,5.7195,5.7195,5.7195,5.7195,5.7195,5.7195,5.7195,5.7195,5.7195,5.7195,5.7195,5.7195,5.7195,5.7195,5.7195,5.7195,5.7195,5.7195,5.7195,5.7195,5.7195,5.7195,5.7195,5.7195,5.7195,5.7195,5.7195,5.7195,5.7195,5.7195,5.7195,5.7195,5.7195,5.7195,5.7195,5.7195,5.7195,5.7195,5.7195,5.7195,5.7195,5.7195,5.7257,5.7369,5.7455,5.7565,5.7768,5.7862,5.7945,5.7997,5.8002,5.8002,5.8002,5.8002,5.8002,5.8002,5.8002,5.7481,5.6353,5.6565,5.6165,5.5039,5.5279,5.5396,5.5396,5.6068,5.6645,5.7125,5.7798,5.839,3.9391,0.0,0.0,0.0,0.0,0.0,0.0,0.0,0.0,0.0,0.0,0.0,0.0,0.0,0.0,0.0,0.0,0.0,0.0,0.0,0.0,0.0,0.0,0.0,0.0,0.0,0.0,0.0,0.0,0.0,0.0,5.7158,5.717,5.708,5.7086,5.7086,5.7086,5.7025,5.7025,5.7086,5.7086,5.7086,5.708,5.717,5.7195,5.7195,5.7195,5.7195,5.7195,5.7195,5.7195,5.7195,5.7195,5.7195,5.7195,5.7195,5.7195,5.7195,5.7195,5.7195,5.7195,5.7195,5.7195,5.7195,5.7195,5.7195,5.7195,5.7195,5.7195,5.7195,5.7195,5.7195,5.7195,5.7195,5.7195,5.7195,5.7195,5.7195,5.7195,5.7195,5.7195,5.7195,5.7195,5.7195,5.7232,5.7357,5.7504,5.7631,5.7745,5.778,5.7857,5.7968,5.7991,5.8002,5.8002,5.8002,5.8002,5.8002,5.8002,5.7812,5.7411,5.6959,5.6517,5.611,5.5639,5.5435,5.5514,5.7046,5.7871,5.8043,5.9571,6.032,0.0,4.0524,0.0,0.0,0.0,0.0,0.0,0.0,0.0,0.0,0.0,0.0,0.0,0.0,0.0,0.0,0.0,0.0,0.0,0.0,0.0,0.0,0.0,0.0,0.0,0.0,0.0,0.0,0.0,0.0,5.6264,5.6869,5.6905,5.6271,5.6253,5.6253,5.6253,5.5685,5.5685,0.0,5.6253,5.6253,5.6271,5.6905,5.7195,5.7195,5.7195,5.7195,5.7195,5.7195,5.7195,5.7195,5.7195,5.7195,5.7195,5.7195,5.7195,5.7195,5.7195,5.7195,5.7195,5.7195,5.7195,5.7195,5.7195,5.7195,5.7195,5.7195,5.7195,5.7195,5.7195,5.7195,5.7195,5.7195,5.7195,5.7195,5.7195,5.7195,5.7195,5.7195,5.7195,5.7195,5.7195,5.7195,5.7219,5.7232,5.7369,5.7443,5.7474,5.7673,5.7804,5.7833,5.7939,5.8002,5.8002,5.8002,5.8002,5.8002,5.8002,5.7812,5.7411,5.6959,5.6517,5.611,5.5639,5.5705,5.6342,5.6705,5.7562,5.8854,5.922,5.9759,0.0,0.0,0.0,0.0,0.0,0.0,0.0,0.0,0.0,0.0,0.0,0.0,0.0,0.0,0.0,0.0,0.0,0.0,0.0,0.0,0.0,0.0,0.0,0.0,0.0,0.0,0.0,0.0,0.0,5.6106,5.6005,5.6072,5.5903,5.5492,5.5468,5.5468,5.5468,5.5082,5.5082,5.5468,5.5468,5.5468,5.5492,5.5903,5.6283,5.6633,5.6633,5.6832,5.7195,5.7195,5.7195,5.7195,5.7195,5.7195,5.7195,5.7195,5.7195,5.7195,5.7195,5.7195,5.7195,5.7195,5.7195,5.7195,5.7195,5.7195,5.7195,5.7195,5.7195,5.7195,5.7195,5.7195,5.7195,5.7195,5.7195,5.7195,5.7195,5.7195,5.7195,5.7195,5.7195,5.7195,5.7195,5.7195,5.7195,5.7195,5.7251,5.7338,5.7382,5.7583,5.7727,5.7786,5.7927,5.8002,5.8002,5.8002,5.8002,5.8002,5.8002,5.7888,5.7652,5.7393,5.6894,5.6129,5.6027,5.6189,5.6594,5.7412,5.8246,5.9102,5.9526,5.9972,0.0,0.0,0.0,0.0,0.0,0.0,0.0,0.0,0.0,0.0,0.0,0.0,0.0,0.0,0.0,0.0,0.0,0.0,0.0,0.0,0.0,0.0,0.0,0.0,0.0,0.0,0.0,0.0,0.0,5.5879,5.5619,5.516,5.4846,5.4701,5.4683,5.4683,5.4683,5.4556,5.4556,5.4683,5.4683,5.4683,5.4683,5.4556,5.4979,5.5818,5.5818,5.6198,5.6808,5.6941,5.6995,5.7013,5.7158,5.7195,5.7195,5.7195,5.7195,5.7195,5.7195,5.7195,5.7195,5.7195,5.7195,5.7195,5.7195,5.7195,5.7195,5.7195,5.7195,5.7195,5.7195,5.7195,5.7195,5.7195,5.7195,5.7195,5.7195,5.7195,5.7195,5.7195,5.7195,5.7195,5.7195,5.7195,5.7195,5.7195,5.7213,5.727,5.7394,5.7541,5.7679,5.7786,5.7927,5.8002,5.8002,5.8002,5.8002,5.8002,5.8002,5.792,5.772,5.7824,5.7376,5.6226,5.6612,5.6896,5.703,5.8418,5.9179,5.9331,6.0068,6.0396,0.0,0.0,0.0,0.0,0.0,0.0,0.0,0.0,0.0,0.0,0.0,0.0,0.0,0.0,0.0,0.0,0.0,0.0,0.0,0.0,0.0,0.0,0.0,0.0,0.0,0.0,0.0,0.0,5.5375,5.542,5.4074,5.4575,5.4575,5.3886,5.385,5.385,5.385,5.3168,5.3168,5.385,5.385,5.385,5.3838,5.3132,5.3639,5.5051,5.5051,5.51,5.5263,5.5909,5.6162,5.6235,5.6941,5.7195,5.7195,5.7195,5.7195,5.7195,5.7195,5.7195,5.7195,5.7195,5.7195,5.7195,5.7195,5.7195,5.7195,5.7195,5.7195,5.7195,5.7195,5.7195,5.7195,5.7195,5.7195,5.7195,5.7195,5.7195,5.7195,5.7195,5.7195,5.7195,5.7195,5.7195,5.7195,5.7195,5.7295,5.7369,5.7406,5.7625,5.7774,5.7798,5.7927,5.8002,5.8002,5.8002,5.8002,5.8002,5.8002,5.7686,5.6976,5.7566,5.7492,5.6634,5.735,5.8077,5.8777,5.8988,5.9488,6.0224,6.0358,6.0396,4.1461,0.0,0.0,0.0,0.0,0.0,0.0,0.0,0.0,0.0,0.0,0.0,0.0,0.0,0.0,0.0,0.0,0.0,0.0,0.0,0.0,0.0,0.0,0.0,0.0,0.0,0.0,0.0,5.4932,5.4888,5.3766,5.3603,5.3385,5.3047,5.3023,5.3023,5.3023,5.2685,5.2685,5.3023,5.3023,5.3023,5.3029,5.2661,5.3132,5.4231,5.4231,5.4484,5.4937,5.5251,5.5377,5.5414,5.5776,5.6156,5.6524,5.6524,5.6814,5.7195,5.7195,5.7195,5.7195,5.7195,5.7195,5.7195,5.7195,5.7195,5.7195,5.7195,5.7195,5.7195,5.7195,5.7195,5.7195,5.7195,5.7195,5.7195,5.7195,5.7195,5.7195,5.7195,5.7195,5.7195,5.7195,5.7195,5.7195,5.7195,5.7307,5.7394,5.7394,5.7637,5.7798,5.7798,5.7927,5.8002,5.8002,5.8002,5.8002,5.8002,5.8002,5.7725,5.7113,5.8082,5.8348,5.7717,5.8272,5.8743,5.9102,5.9583,6.003,6.0396,6.0396,6.0396,0.0,0.0,0.0,0.0,0.0,0.0,0.0,0.0,0.0,0.0,0.0,0.0,0.0,0.0,0.0,0.0,0.0,0.0,0.0,0.0,0.0,0.0,0.0,0.0,0.0,0.0,0.0,0.0,5.421,5.4231,5.344,5.2824,5.2504,5.2504,5.2504,5.2504,5.2504,5.2305,5.2305,5.2504,5.2286,5.2305,5.2504,5.2504,5.2824,5.3403,5.3403,5.3748,5.4309,5.4502,5.4593,5.4611,5.4828,5.5341,5.5999,5.5999,5.6506,5.7195,5.7195,5.7195,5.7195,5.7195,5.7195,5.7195,5.7195,5.7195,5.7195,5.7195,5.7195,5.7195,5.7195,5.7195,5.7195,5.7195,5.7195,5.7195,5.7195,5.7195,5.7195,5.7195,5.7195,5.7195,5.7195,5.7195,5.7201,5.7257,5.7357,5.7455,5.7504,5.7709,5.7845,5.7845,5.7945,5.8002,5.8002,5.8002,5.8002,5.8002,5.8002,5.7832,5.749,5.8593,5.9042,5.8681,5.9177,5.943,5.943,6.0087,6.0396,6.0396,6.0396,6.0396,0.0,0.0,0.0,0.0,0.0,0.0,0.0,0.0,0.0,0.0,0.0,0.0,0.0,0.0,0.0,0.0,0.0,0.0,0.0,0.0,0.0,0.0,0.0,0.0,0.0,0.0,0.0,0.0,5.3106,5.3403,5.2612,5.2522,5.2504,5.2504,5.2504,5.2504,5.2504,5.1743,5.1743,5.248,5.1725,5.1761,5.2504,5.2504,5.2522,5.2552,5.2552,5.2589,5.2679,5.344,5.376,5.3838,5.4593,5.5341,5.5999,5.5999,5.6506,5.7195,5.7195,5.7195,5.7195,5.7195,5.7195,5.7195,5.7195,5.7195,5.7195,5.7195,5.7195,5.7195,5.7195,5.7195,5.7195,5.7195,5.7195,5.7195,5.7195,5.7195,5.7195,5.7195,5.7195,5.7195,5.7195,5.7195,5.7239,5.7363,5.7492,5.7637,5.7762,5.7891,5.7991,5.7991,5.7997,5.8002,5.8002,5.8002,5.8002,5.8002,5.8002,5.7995,5.7958,5.8762,5.9182,5.9163,5.9923,6.0339,6.0339,6.0377,6.0396,6.0396,6.0396,6.0396,0.0,0.0,0.0,0.0,0.0,0.0,0.0,0.0,0.0,0.0,0.0,0.0,0.0,0.0,0.0,0.0,0.0,0.0,0.0,0.0,0.0,0.0,0.0,0.0,0.0,0.0,0.0,0.0,0.0,5.3349,5.2534,5.2015,5.1725,5.1725,5.1224,5.097,5.097,5.0662,5.0662,5.097,5.0662,5.068,5.097,5.097,5.1236,5.1725,5.1725,5.2015,5.2522,5.2806,5.2933,5.2951,5.3241,5.3838,5.4526,5.4526,5.5329,5.6434,5.6434,5.6778,5.7195,5.7195,5.7195,5.7195,5.7195,5.7195,5.7195,5.7195,5.7195,5.7195,5.7195,5.7195,5.7195,5.7195,5.7195,5.7195,5.7195,5.7195,5.7195,5.7195,5.7195,5.7195,5.7195,5.7195,5.7257,5.7369,5.7504,5.7649,5.778,5.7921,5.8002,5.8002,5.8002,5.8002,5.8002,5.8002,5.8002,5.8002,5.8002,5.8002,5.8002,5.877,5.921,5.921,5.9995,6.0396,6.0396,6.0396,6.0396,6.0396,6.0396,6.0396,0.0,0.0,0.0,0.0,0.0,0.0,0.0,0.0,0.0,0.0,0.0,0.0,0.0,0.0,0.0,0.0,0.0,0.0,0.0,0.0,0.0,0.0,0.0,0.0,0.0,0.0,0.0,0.0,0.0,0.0,5.2522,5.1743,5.1187,5.0916,5.0372,5.0106,5.0106,4.9823,4.9823,5.0106,4.9823,4.9847,5.0106,5.0106,5.039,5.0916,5.1187,5.1761,5.2504,5.2504,5.2504,5.2504,5.2504,5.2993,5.3693,5.3698,5.4526,5.5673,5.5909,5.635,5.6839,5.7104,5.7195,5.7195,5.7195,5.7195,5.7195,5.7195,5.7195,5.7195,5.7195,5.7195,5.7195,5.7195,5.7195,5.7195,5.7195,5.7195,5.7195,5.7195,5.7195,5.7195,5.7195,5.7244,5.7301,5.7455,5.7583,5.7715,5.7857,5.795,5.8002,5.8002,5.8002,5.8002,5.8002,5.8002,5.8002,5.8002,5.8002,5.8002,5.8002,5.8633,5.9055,5.9206,5.9862,6.0274,6.0396,6.0396,6.0396,6.0396,6.0396,6.0396,0.0,0.0,0.0,0.0,0.0,0.0,4.5042,0.0,0.0,0.0,0.0,0.0,0.0,0.0,0.0,0.0,0.0,0.0,0.0,0.0,0.0,0.0,0.0,0.0,0.0,0.0,0.0,0.0,5.2162,5.248,5.2468,5.1671,5.0861,5.0052,5.0034,5.0034,5.0034,4.9251,4.9269,5.001,4.9233,4.9269,5.0034,5.0034,5.0046,5.0101,5.0916,5.1725,5.2468,5.248,5.2504,5.2504,5.2504,5.2987,5.3669,5.3653,5.4168,5.4979,5.5716,5.5981,5.6139,5.6947,5.7195,5.7195,5.7195,5.7195,5.7195,5.7195,5.7195,5.7195,5.7195,5.7195,5.7195,5.7195,5.7195,5.7195,5.7195,5.7195,5.7195,5.7195,5.7195,5.7195,5.7195,5.7319,5.7449,5.7583,5.7709,5.7839,5.7985,5.8002,5.8002,5.8002,5.8002,5.8002,5.8002,5.8002,5.8002,5.8002,5.8002,5.8002,5.8002,5.8391,5.8796,5.9182,5.9607,5.9999,6.0396,6.0396,6.0396,6.0396,6.0396,6.0396,3.9233,0.0,0.0,0.0,0.0,0.0,4.3249,4.4354,4.549,0.0,0.0,0.0,0.0,0.0,0.0,0.0,0.0,0.0,0.0,0.0,0.0,0.0,0.0,0.0,0.0,0.0,0.0,0.0,5.2162,5.225,5.1653,5.0319,4.9197,4.8382,4.8364,4.8364,4.8364,4.8141,4.8141,4.8364,4.8147,4.8141,4.8364,4.8364,4.8672,4.9287,5.0077,5.0898,5.1671,5.2268,5.2504,5.2504,5.2504,5.2643,5.283,5.2828,5.334,5.4137,5.4936,5.5546,5.6135,5.6934,5.7195,5.7195,5.7195,5.7195,5.7195,5.7195,5.7195,5.7195,5.7195,5.7195,5.7195,5.7195,5.7195,5.7195,5.7195,5.7195,5.7195,5.7195,5.7195,5.7195,5.7195,5.7226,5.7326,5.7571,5.7637,5.7739,5.7973,5.8002,5.8002,5.8002,5.8002,5.8002,5.8002,5.8002,5.8002,5.8002,5.8002,5.8002,5.8002,5.8391,5.8796,5.9182,5.9607,5.9999,6.0396,6.0396,6.0396,6.0396,6.0396,6.0396,0.0,0.0,0.0,0.0,0.0,0.0,4.1687,4.2266,4.2968,0.0,0.0,0.0,0.0,0.0,0.0,0.0,0.0,0.0,0.0,0.0,0.0,0.0,0.0,0.0,0.0,4.9929,5.0832,5.1437,5.2118,5.1997,5.0861,4.9595,4.8534,4.7725,4.7707,4.7707,4.7707,4.7707,4.7707,4.7707,4.7707,4.7707,4.7707,4.7707,4.796,4.8444,4.9257,4.9878,5.0397,5.1526,5.2196,5.2504,5.2504,5.2504,5.2504,5.2504,5.2798,5.3322,5.4127,5.4894,5.5677,5.6443,5.694,5.7195,5.7195,5.7195,5.7195,5.7195,5.7195,5.7195,5.7195,5.7195,5.7195,5.7195,5.7195,5.7195,5.7195,5.7195,5.7195,5.7195,5.7195,5.7195,5.7195,5.7257,5.7344,5.748,5.7553,5.7679,5.7898,5.7921,5.7939,5.7997,5.8002,5.8002,5.8002,5.8002,5.8002,5.8002,5.8002,5.8002,5.8002,5.8237,5.8626,5.9197,5.9437,5.9838,6.0396,6.0396,6.0396,6.0396,6.0396,6.0396,0.0,0.0,0.0,0.0,0.0,0.0,4.0357,4.0542,4.0922,4.1509,0.0,0.0,0.0,0.0,0.0,0.0,0.0,0.0,0.0,0.0,0.0,0.0,0.0,0.0,4.9037,4.9792,5.0522,5.113,5.1743,5.1471,5.0046,4.9197,4.8444,4.7725,4.7707,4.7707,4.7707,4.7707,4.7707,4.7707,4.7707,4.7707,4.7707,4.7707,4.7707,4.7743,4.8558,4.8896,4.9023,5.0638,5.1725,5.2377,5.2468,5.2504,5.2504,5.2504,5.2504,5.2625,5.341,5.4164,5.49,5.5633,5.6364,5.6953,5.7031,5.7073,5.7086,5.717,5.7195,5.7195,5.7195,5.7195,5.7195,5.7195,5.7195,5.7195,5.7195,5.7195,5.7195,5.7195,5.7195,5.7195,5.7195,5.7295,5.7375,5.7406,5.751,5.7637,5.7774,5.7798,5.7845,5.7985,5.8002,5.8002,5.8002,5.8002,5.8002,5.8002,5.8002,5.8002,5.8002,5.8002,5.8369,5.9173,5.9298,5.9692,6.0396,6.0396,6.0396,6.0396,6.0396,6.0396,0.0,0.0,0.0,0.0,0.0,0.0,3.9416,4.0801,4.2205,0.0,0.0,0.0,0.0,0.0,0.0,0.0,0.0,0.0,0.0,0.0,0.0,0.0,0.0,0.0,4.8312,4.899,4.9686,5.0285,4.989,4.9463,4.9155,4.8377,4.787,4.7707,4.7707,4.7707,4.7707,4.7707,4.7707,4.7707,4.7707,4.7707,4.7707,4.7707,4.7707,4.7743,4.8558,4.8896,4.9023,5.0638,5.1381,5.1604,5.225,5.2504,5.2504,5.2504,5.2504,5.2625,5.341,5.3807,5.4054,5.4855,5.5217,5.5462,5.605,5.6233,5.6368,5.702,5.7195,5.7195,5.7195,5.7195,5.7195,5.7195,5.7195,5.7195,5.7195,5.7195,5.7195,5.7195,5.7195,5.7195,5.7195,5.7213,5.7288,5.7375,5.7412,5.7534,5.7768,5.7798,5.7845,5.7985,5.8002,5.8002,5.8002,5.8002,5.8002,5.8002,5.8002,5.8002,5.8002,5.8002,5.8369,5.9173,5.9846,6.0237,6.0396,6.0396,6.0396,6.0396,6.0396,6.0396,0.0,0.0,0.0,4.1202,0.0,0.0,0.0,4.0502,4.0794,4.0798,4.077,0.0,0.0,0.0,0.0,0.0,0.0,0.0,0.0,0.0,0.0,0.0,0.0,0.0,4.7247,4.7998,4.8914,5.0012,4.9342,4.8896,4.8896,4.8141,4.7707,4.7707,4.7308,4.729,4.7707,4.7296,4.7296,4.7707,4.7707,4.7707,4.7707,4.7707,4.7707,4.7725,4.8123,4.8304,4.8431,5.0041,5.0698,5.0825,5.2033,5.2504,5.2504,5.2504,5.2504,5.2552,5.2957,5.3359,5.3761,5.4164,5.4569,5.4967,5.534,5.5702,5.6179,5.6965,5.7195,5.7195,5.7195,5.7195,5.7195,5.7195,5.7195,5.7195,5.7195,5.7195,5.7195,5.7195,5.7195,5.7195,5.7195,5.7195,5.7213,5.7282,5.7295,5.7363,5.7565,5.7661,5.775,5.7892,5.7962,5.8002,5.8002,5.8002,5.8002,5.8002,5.8002,5.8002,5.8002,5.8002,5.8369,5.9173,5.9995,6.0396,6.0396,6.0396,6.0396,6.0396,6.0396,6.0396,0.0,0.0,0.0,0.0,0.0,4.2216,0.0,0.0,0.0,4.0487,0.0,0.0,0.0,0.0,0.0,0.0,0.0,0.0,0.0,0.0,0.0,0.0,0.0,0.0,4.6385,4.6952,4.779,4.9086,4.8713,4.8444,4.8444,4.7978,4.7634,4.7471,4.6843,4.6807,4.7453,4.682,4.6897,4.7707,4.7707,4.7707,4.7707,4.7707,4.7707,4.7707,4.7707,4.7707,4.7815,4.9275,4.9865,5.0046,5.1816,5.2504,5.2504,5.2504,5.2504,5.2504,5.2504,5.2924,5.3471,5.3471,5.401,5.4664,5.4677,5.5183,5.5911,5.6566,5.6869,5.6977,5.6977,5.7086,5.7195,5.7195,5.7195,5.7195,5.7195,5.7195,5.7195,5.7195,5.7195,5.7195,5.7195,5.7195,5.7219,5.7226,5.7232,5.7307,5.7467,5.7577,5.7691,5.7815,5.7939,5.8002,5.8002,5.8002,5.8002,5.8002,5.8002,5.8002,5.8002,5.8142,5.8532,5.9197,5.9995,6.0396,6.0396,6.0396,6.0396,6.0396,6.0396,6.0396,0.0,0.0,0.0,0.0,4.3847,0.0,0.0,0.0,4.3015,4.1367,0.0,0.0,0.0,0.0,0.0,0.0,0.0,0.0,0.0,0.0,0.0,0.0,0.0,0.0,0.0,4.5938,4.5653,4.5834,4.6413,4.677,4.677,4.7363,4.7368,4.6662,4.6553,4.6535,4.6644,4.6553,4.6897,4.7707,4.7707,4.7707,4.7707,4.7707,4.7707,4.7707,4.7707,4.7707,4.7761,4.8666,4.9047,4.9264,5.1593,5.2504,5.2504,5.2504,5.2504,5.2504,5.2504,5.2564,5.2648,5.2648,5.3183,5.384,5.3831,5.4387,5.5045,5.5136,5.5631,5.6144,5.6144,5.6669,5.7195,5.7195,5.7195,5.7195,5.7195,5.7195,5.7195,5.7195,5.7195,5.7195,5.7195,5.7195,5.7232,5.7351,5.7387,5.748,5.7721,5.7768,5.7821,5.7968,5.7991,5.8002,5.8002,5.8002,5.8002,5.8002,5.8002,5.8002,5.8002,5.8674,5.9117,5.9206,5.9995,6.0396,6.0396,6.0396,6.0396,6.0396,6.0396,6.0396,0.0,0.0,0.0,0.0,0.0,0.0,4.2609,0.0,4.2322,0.0,0.0,0.0,0.0,0.0,0.0,0.0,4.0571,0.0,0.0,0.0,0.0,0.0,0.0,0.0,0.0,0.0,0.0,0.0,4.6051,4.63,4.5834,4.6124,4.6155,4.5816,4.5345,4.5327,4.5798,4.5798,4.6209,4.7006,4.7471,4.7707,4.7707,4.7707,4.7707,4.7707,4.7707,4.7707,4.7761,4.8576,4.8896,4.9047,5.0524,5.1381,5.1852,5.2323,5.2504,5.2504,5.2504,5.2504,5.2504,5.2504,5.2732,5.3087,5.356,5.3935,5.44,5.5287,5.5764,5.6114,5.6579,5.6941,5.7195,5.7195,5.7195,5.7195,5.7195,5.7195,5.7195,5.7195,5.7195,5.7195,5.7195,5.7195,5.7257,5.7369,5.7394,5.748,5.7661,5.775,5.7815,5.7886,5.7956,5.8002,5.8002,5.8002,5.8002,5.8002,5.8002,5.8002,5.8002,5.877,5.921,5.921,5.9995,6.0396,6.0396,6.0396,6.0396,6.0396,6.0396,6.0396,4.5635,0.0,0.0,0.0,0.0,0.0,0.0,0.0,0.0,0.0,0.0,0.0,0.0,0.0,0.0,0.0,0.0,4.0225,0.0,0.0,0.0,0.0,0.0,0.0,0.0,0.0,0.0,4.5024,4.5508,4.5599,4.5001,4.5182,4.52,4.4983,4.4408,4.4481,4.5291,4.5291,4.5816,4.6825,4.7205,4.7368,4.7368,4.7368,4.7368,4.7381,4.7598,4.7707,4.7743,4.8322,4.8697,4.8974,4.9791,5.0594,5.1374,5.1954,5.2305,5.2504,5.2504,5.2504,5.2504,5.2504,5.2504,5.2607,5.3186,5.3374,5.3597,5.4725,5.5365,5.583,5.641,5.688,5.7195,5.7195,5.7195,5.7195,5.7195,5.7195,5.7195,5.7195,5.7195,5.7195,5.7195,5.7195,5.7269,5.7437,5.7443,5.7522,5.7691,5.7792,5.7845,5.7845,5.7945,5.8002,5.8002,5.8002,5.8002,5.8002,5.8002,5.8002,5.8002,5.8677,5.9046,5.9046,5.9838,6.0233,6.0233,6.0357,6.0396,6.0396,6.0396,6.0396,0.0,0.0,0.0,4.5684,0.0,0.0,0.0,0.0,4.3666,0.0,0.0,0.0,0.0,0.0,0.0,0.0,0.0,0.0,0.0,0.0,0.0,0.0,0.0,0.0,0.0,4.4155,4.4173,4.4137,4.4155,4.4173,4.4137,4.4879,4.4928,4.4155,4.4118,4.4481,4.5291,4.5291,4.6082,4.7652,4.6897,4.6535,4.6535,4.6535,4.6535,4.6571,4.7363,4.7707,4.7707,4.7725,4.8196,4.8979,4.9791,5.0595,5.1294,5.1324,5.1833,5.2504,5.2504,5.2504,5.2504,5.2504,5.2504,5.2504,5.2522,5.2534,5.2558,5.2594,5.3729,5.4937,5.4973,5.6084,5.7195,5.7195,5.7195,5.7195,5.7195,5.7195,5.7195,5.7195,5.7195,5.7195,5.7195,5.7195,5.73,5.7559,5.7595,5.7691,5.7956,5.7991,5.7991,5.7991,5.7997,5.8002,5.8002,5.8002,5.8002,5.8002,5.8002,5.8002,5.8002,5.8402,5.8618,5.8618,5.9405,5.9811,5.9811,6.0215,6.0396,6.0396,6.0396,6.0396,0.0,0.0,4.7575,4.5973,0.0,0.0,0.0,0.0,0.0,0.0,0.0,0.0,0.0,0.0,0.0,0.0,0.0,0.0,0.0,0.0,0.0,0.0,0.0,0.0,0.0,0.0,0.0,4.3344,4.3797,4.387,4.3326,4.3557,4.3598,4.3308,4.3308,4.3689,4.4499,4.5037,4.5847,4.6897,4.6626,4.6499,4.6499,4.6499,4.6499,4.6535,4.735,4.7707,4.7707,4.7707,4.787,4.819,4.899,4.9793,5.0625,5.1696,5.2274,5.2504,5.2504,5.2504,5.2504,5.2504,5.2504,5.2504,5.2504,5.2504,5.2607,5.3132,5.4074,5.5009,5.5504,5.6416,5.7195,5.7195,5.7195,5.7195,5.7195,5.7195,5.7195,5.7195,5.7195,5.7195,5.7195,5.7264,5.7382,5.7577,5.7679,5.7792,5.7979,5.8002,5.8002,5.8002,5.8002,5.8002,5.8002,5.8002,5.8002,5.8002,5.8002,5.8002,5.8002,5.8391,5.8597,5.8597,5.9126,5.941,5.941,5.9537,5.9741,6.0003,6.0003,6.014,4.7212,4.7463,0.0,4.6035,4.5562,0.0,4.3411,0.0,0.0,0.0,0.0,0.0,0.0,0.0,0.0,0.0,0.0,0.0,0.0,4.1814,0.0,0.0,0.0,0.0,0.0,0.0,4.3888,4.3363,4.3544,4.3453,0.0,4.2892,4.2892,4.2892,4.2892,4.3417,4.4517,4.5042,4.5707,4.6499,4.6209,4.5924,4.5653,4.5938,4.6061,4.6123,4.7234,4.7707,4.7707,4.7707,4.8044,4.861,4.9128,4.9983,5.1047,5.1796,5.2257,5.2504,5.2504,5.2504,5.2504,5.2504,5.2504,5.2504,5.2504,5.2504,5.2667,5.3476,5.4285,5.5063,5.5818,5.6597,5.7195,5.7195,5.7195,5.7195,5.7195,5.7195,5.7195,5.7195,5.7195,5.7195,5.7195,5.735,5.7504,5.7589,5.7715,5.7857,5.7985,5.8002,5.8002,5.8002,5.8002,5.8002,5.8002,5.8002,5.8002,5.8002,5.8002,5.8002,5.8002,5.8246,5.852,5.8805,5.893,5.9124,5.9413,5.9267,5.941,5.9795,5.9795,6.0015]},{"header":{"parameterUnit":"m.s-1","parameterCategory":1,"la1":30.6,"la2":29.2853,"lo1":-89.7004,"lo2":-87.6739,"dy":0.0162,"dx":0.0183,"nx":112,"ny":82,"refTime":"2023-11-20T18:00:00:Z","depth":0,"parameterNumber":3,"parameterNumberName":"V-component_of_WINDS"},"data":[0.0,0.0,0.0,0.0,0.0,0.0,0.0,0.0,0.0,0.0,0.0,0.0,0.0,0.0,0.0,0.0,0.0,0.0,0.0,0.0,0.0,0.0,0.0,0.0,0.0,0.0,0.0,0.0,0.0,0.0,0.0,0.0,0.0,0.0,0.0,0.0,0.0,0.0,0.0,0.0,0.0,0.0,0.0,0.0,0.0,0.0,0.0,0.0,0.0,0.0,0.0,0.0,0.0,0.0,0.0,0.0,0.0,0.0,0.0,0.0,0.0,0.0,0.0,0.0,0.0,0.0,0.0,0.0,0.0,0.0,0.0,0.0,0.0,0.0,0.0,0.0,0.0,0.0,0.0,0.0,0.0,0.0,0.0,0.0,0.0,0.0,0.0,0.0,0.0,0.0,0.0,0.8663,0.973,1.024,0.9925,0.9701,0.9076,0.7904,0.0,0.0,0.0,0.0,0.0,0.0,0.0,0.0,0.0,0.0,0.0,0.0,0.0,0.0,0.0,0.0,0.0,0.0,0.0,0.0,0.0,0.0,0.0,0.0,0.0,0.0,0.0,0.0,0.0,0.0,0.0,0.0,0.0,0.0,0.0,0.0,0.0,0.0,0.0,0.0,0.0,0.0,0.0,0.0,0.0,0.0,0.0,0.0,0.0,0.0,0.0,0.0,0.0,0.0,0.0,0.0,0.0,0.0,0.0,0.0,0.0,0.0,0.0,0.0,0.0,0.0,0.0,0.0,0.0,0.0,0.0,0.0,0.0,0.0,0.0,0.0,0.0,0.0,0.0,0.0,0.0,0.0,0.0,0.0,0.0,0.0,0.0,0.0,0.0,0.0,0.0,0.0,0.0,0.0,0.0,0.0,0.0,0.0,0.0,0.0,0.0,0.0,0.0,0.0,0.8002,0.9312,0.9921,1.0141,0.9917,0.9608,0.9014,0.8036,0.0,0.0,0.0,0.0,0.0,0.0,0.0,0.0,0.0,0.0,0.0,0.0,0.0,0.0,0.0,0.0,0.0,0.0,0.0,0.0,0.0,0.0,0.0,0.0,0.0,0.0,0.0,0.0,0.0,0.0,0.0,0.0,0.0,0.0,0.0,0.0,0.0,0.0,0.0,0.0,0.0,0.0,0.0,0.0,0.0,0.0,0.0,0.0,0.0,0.0,0.0,0.0,0.0,0.0,0.0,0.0,0.0,0.0,0.0,0.0,0.0,0.0,0.0,0.0,0.0,0.0,0.0,0.0,0.0,0.0,0.0,0.0,0.0,0.0,0.0,0.0,0.0,0.0,0.0,0.0,0.0,0.0,0.0,0.0,0.0,0.0,0.0,0.0,0.0,0.0,0.0,0.0,0.0,0.0,0.0,0.0,0.0,0.0,0.0,0.0,0.0,0.0,0.0,0.779,0.8404,0.9636,1.0031,1.0126,0.9913,0.9596,0.905,0.8215,0.7833,0.0,0.0,0.0,0.0,0.0,0.0,0.0,0.0,0.0,0.0,0.0,0.0,0.0,0.0,0.0,0.0,0.0,0.0,0.0,0.0,0.0,0.0,0.0,0.0,0.0,0.0,0.0,0.0,0.0,0.0,0.0,0.0,0.0,0.0,0.0,0.0,0.0,0.0,0.0,0.0,0.0,0.0,0.0,0.0,0.0,0.0,0.0,0.0,0.0,0.0,0.0,0.0,0.0,0.0,0.0,0.0,0.0,0.0,0.0,0.0,0.0,0.0,0.0,0.0,0.0,0.0,0.0,0.0,0.0,0.0,0.0,0.0,0.0,0.0,0.0,0.0,0.0,0.0,0.0,0.0,0.0,0.0,0.0,0.0,0.0,0.0,0.0,0.0,0.0,0.0,0.0,0.0,0.0,0.0,0.0,0.0,0.0,0.0,0.0,0.0,0.0,0.0,0.8473,0.8835,0.9726,1.0011,1.0048,0.9852,0.9482,0.8985,0.8339,0.7754,0.0,0.0,0.0,0.0,0.0,0.0,0.0,0.0,0.0,0.0,0.0,0.0,0.0,0.0,0.0,0.0,0.0,0.0,0.0,0.0,0.0,0.0,0.0,0.0,0.0,0.0,0.0,0.0,0.0,0.0,0.0,0.0,0.0,0.0,0.0,0.0,0.0,0.0,0.0,0.0,0.0,0.0,0.0,0.0,0.0,0.0,0.0,0.0,0.0,0.0,0.0,0.0,0.0,0.0,0.0,0.0,0.0,0.0,0.0,0.0,0.0,0.0,0.0,0.0,0.0,0.0,0.0,0.0,0.0,0.0,0.0,0.0,0.0,0.0,0.0,0.0,0.0,0.0,0.0,0.0,0.0,0.0,0.0,0.0,0.0,0.0,0.0,0.0,0.0,0.0,0.0,0.0,0.0,0.0,0.0,0.0,0.0,0.0,0.0,0.0,0.0,0.0,0.8629,0.9198,0.9579,0.9803,0.9848,0.9636,0.9138,0.8683,0.8323,0.7624,0.0,0.0,0.0,0.0,0.0,0.0,0.0,0.0,0.0,0.0,0.0,0.0,0.0,0.0,0.0,0.0,0.0,0.0,0.0,0.0,0.0,0.0,0.0,0.0,0.0,0.0,0.0,0.0,0.0,0.0,0.0,0.0,0.0,0.0,0.0,0.0,0.0,0.0,0.0,0.0,0.0,0.0,0.0,0.0,0.0,0.0,0.0,0.0,0.0,0.0,0.0,0.0,0.0,0.0,0.0,0.0,0.0,0.0,0.0,0.0,0.0,0.0,0.0,0.0,0.0,0.0,0.0,0.0,0.0,0.0,0.0,0.0,0.0,0.0,0.0,0.0,0.0,0.0,0.0,0.0,0.0,0.0,0.0,0.0,0.0,0.0,0.0,0.0,0.0,0.0,0.0,0.0,0.0,0.0,0.0,0.0,0.0,0.0,0.0,0.0,0.0,0.0,0.8465,0.8998,0.0,0.9673,0.9685,0.9607,0.9105,0.8707,0.8501,0.0,0.0,0.0,0.0,0.0,0.0,0.0,0.0,0.0,0.0,0.0,0.0,0.0,0.0,0.0,0.0,0.0,0.0,0.0,0.0,0.0,0.0,0.0,0.0,0.0,0.0,0.0,0.0,0.0,0.0,0.0,0.0,0.0,0.0,0.0,0.0,0.0,0.0,0.0,0.0,0.0,0.0,0.0,0.0,0.0,0.0,0.0,0.0,0.0,0.0,0.0,0.0,0.0,0.0,0.0,0.0,0.0,0.0,0.0,0.0,0.0,0.0,0.0,0.0,0.0,0.0,0.0,0.0,0.0,0.0,0.0,0.0,0.0,0.0,0.0,0.0,0.0,0.0,0.0,0.0,0.0,0.0,0.0,0.0,0.0,0.0,0.0,0.0,0.0,0.0,0.0,0.0,0.0,0.0,0.0,0.0,0.0,0.0,0.0,0.0,0.0,0.0,0.7925,0.8449,0.8974,0.0,0.9603,0.9579,0.9547,0.9047,0.8666,0.8513,0.0,0.0,0.0,0.0,0.0,0.0,0.0,0.0,0.0,0.0,0.0,0.0,0.0,0.0,0.0,0.0,0.0,0.0,0.0,0.0,0.0,0.0,0.0,0.0,0.0,0.0,0.0,0.0,0.0,0.0,0.0,0.0,0.0,0.0,0.0,0.0,0.0,0.0,0.0,0.0,0.0,0.0,0.0,0.0,0.0,0.0,0.0,0.0,0.0,0.0,0.0,0.0,0.0,0.0,0.0,0.0,0.0,0.0,0.0,0.0,0.0,0.0,0.0,0.0,0.0,0.0,0.0,0.0,0.0,0.0,0.0,0.0,0.0,0.0,0.0,0.0,0.0,0.0,0.0,0.0,0.0,0.0,0.0,0.0,0.0,0.0,0.0,0.0,0.0,0.0,0.0,0.0,0.0,0.0,0.0,0.0,0.0,0.0,0.0,0.0,0.0,0.0,0.7961,0.8649,0.9234,0.9563,0.9603,0.9543,0.9404,0.8907,0.8509,0.0,0.0,0.0,0.0,0.0,0.0,0.0,0.0,0.0,0.0,0.0,0.0,0.0,0.0,0.0,0.0,0.0,0.0,0.0,0.0,0.0,0.0,0.0,0.0,0.0,0.0,0.0,0.0,0.0,0.0,0.0,0.0,0.0,0.0,0.0,0.0,0.0,0.0,0.0,0.0,0.0,0.0,0.0,0.0,0.0,0.0,0.0,0.0,0.0,0.0,0.0,0.0,0.0,0.0,0.0,0.0,0.0,0.0,0.0,0.0,0.0,0.0,0.0,0.0,0.0,0.0,0.0,0.0,0.0,0.0,0.0,0.0,0.0,0.0,0.0,0.0,0.0,0.0,0.0,0.0,0.0,0.0,0.0,0.0,0.0,0.0,0.0,0.0,0.0,0.0,0.0,0.0,0.0,0.0,0.0,0.0,0.0,0.0,0.0,0.0,0.0,0.0,0.0,0.8173,0.8859,0.938,0.9579,0.9603,0.9543,0.9404,0.8907,0.8509,0.8315,0.0,0.0,0.0,0.0,0.0,0.0,0.0,0.0,0.0,0.0,0.0,0.0,0.0,0.0,0.0,0.0,0.0,0.0,0.0,0.0,0.0,0.0,0.0,0.0,0.0,0.0,0.0,0.0,0.0,0.0,0.0,0.0,0.0,0.0,0.0,0.0,0.0,0.0,0.0,0.0,0.0,0.0,0.0,0.0,0.0,0.0,0.0,0.0,0.0,0.0,0.0,0.0,0.0,0.0,0.0,0.0,0.0,0.0,0.0,0.0,0.0,0.0,0.0,0.0,0.0,0.0,0.0,0.0,0.0,0.0,0.0,0.0,0.0,0.0,0.0,0.0,0.0,0.0,0.0,0.0,0.0,0.0,0.0,0.0,0.0,0.0,0.0,0.0,0.0,0.0,0.0,0.0,0.0,0.0,0.0,0.0,0.0,0.0,0.0,0.0,0.0,0.0,0.8254,0.8948,0.9449,0.9583,0.9603,0.9514,0.9299,0.8866,0.8476,0.8195,0.0,0.0,0.0,0.0,0.0,0.0,0.0,0.0,0.0,0.0,0.0,0.0,0.0,0.0,0.0,0.0,0.0,0.0,0.0,0.0,0.0,0.0,0.0,0.0,0.0,0.0,0.0,0.0,0.0,0.0,0.0,0.0,0.0,0.0,0.0,0.0,0.0,0.0,0.0,0.0,0.0,0.0,0.0,0.0,0.0,0.0,0.0,0.0,0.0,0.0,0.0,0.0,0.0,0.0,0.0,0.0,0.0,0.0,0.0,0.0,0.0,0.0,0.0,0.0,0.0,0.0,0.0,0.0,0.0,0.0,0.0,0.0,0.0,0.0,0.0,0.0,0.0,0.0,0.0,0.0,0.0,0.0,0.0,0.0,0.0,0.0,0.0,0.0,0.0,0.0,0.0,0.0,0.0,0.0,0.0,0.0,0.0,0.0,0.0,0.0,0.0,0.0,0.8282,0.8961,0.9466,0.9587,0.9603,0.9478,0.9149,0.8818,0.8456,0.805,0.0,0.0,0.0,0.0,0.0,0.0,0.0,0.0,0.0,0.0,0.0,0.0,0.0,0.0,0.0,0.0,0.0,0.0,0.0,0.0,0.0,0.0,0.0,0.0,0.0,0.0,0.0,0.0,0.0,0.0,0.0,0.0,0.0,0.0,0.0,0.0,0.0,0.0,0.0,0.0,0.0,0.0,0.0,0.0,0.0,0.0,0.0,0.0,0.0,0.0,0.0,0.0,0.0,0.0,0.0,0.0,0.0,0.0,0.0,0.0,0.9943,0.0,0.0,0.0,0.0,0.0,0.0,0.0,0.0,0.0,0.0,0.0,0.0,0.0,0.0,0.0,0.0,0.0,0.0,0.0,0.0,0.0,0.0,0.0,0.0,0.0,0.0,0.0,0.0,0.0,0.0,0.0,0.0,0.0,0.0,0.0,0.0,0.0,0.0,0.0,0.0,0.0,0.8501,0.9129,0.9571,0.9599,0.9603,0.9527,0.9355,0.8986,0.8613,0.8256,0.802,0.0,0.0,0.0,0.0,0.0,0.0,0.0,0.0,0.0,0.0,0.0,0.0,0.0,0.0,0.0,0.0,0.0,0.0,0.0,0.0,0.0,0.0,0.0,0.0,0.0,0.0,0.0,0.0,0.0,0.0,0.0,0.0,0.0,0.0,0.0,0.0,0.0,0.0,0.0,0.0,0.0,0.0,0.0,0.0,0.0,0.0,0.0,0.0,0.0,0.0,0.0,0.0,0.0,0.0,0.0,0.0,0.0,0.0,0.0,0.0,1.0634,0.0,0.0,0.0,0.0,0.0,0.0,0.0,0.0,0.0,0.0,0.0,0.0,0.0,0.0,0.0,0.0,0.0,0.0,0.0,0.0,0.0,0.0,0.0,0.0,0.0,0.0,0.0,0.0,0.0,0.0,0.0,0.0,0.0,0.0,0.0,0.0,0.0,0.0,0.0,0.0,0.8665,0.9226,0.9603,0.9603,0.9603,0.9543,0.9404,0.912,0.8976,0.9061,0.8915,0.0,0.0,0.0,0.0,0.0,0.0,0.0,0.0,0.0,0.0,0.0,0.0,0.0,0.0,0.0,0.0,0.0,0.0,0.0,0.0,0.0,0.0,0.0,0.0,0.0,0.0,0.0,0.0,0.0,0.0,0.0,0.0,0.0,0.0,0.0,0.0,0.0,0.0,0.0,0.0,0.0,0.0,0.0,0.0,0.0,0.0,0.0,0.0,0.0,0.0,0.0,0.0,0.0,1.4608,1.5122,1.4761,1.5427,1.5804,1.5805,1.3852,1.288,1.2631,0.0,0.0,0.0,0.0,0.0,0.0,0.0,0.0,0.0,0.0,0.0,0.0,0.0,0.0,0.0,0.0,0.0,0.0,0.0,0.0,0.0,0.0,0.0,0.0,0.0,0.836,0.8155,0.0,0.0,0.0,0.0,0.0,0.0,0.0,0.0,0.0,0.0,0.0,0.0,0.9034,0.9549,0.9879,0.9879,0.9879,0.9759,0.9461,0.942,0.9582,0.9997,0.9727,0.9593,0.0,0.0,0.0,0.0,0.0,0.0,0.0,0.0,0.0,0.0,0.0,0.0,0.0,0.0,0.0,0.0,0.0,0.0,0.0,0.0,0.0,0.0,0.0,0.0,0.0,0.0,0.0,0.0,0.0,0.0,0.0,0.0,1.3287,1.2699,0.0,0.0,0.0,0.0,0.0,0.0,0.0,0.0,0.0,0.0,0.0,0.0,0.0,1.4229,1.4545,1.5443,1.59,1.5879,1.6636,1.6953,1.6896,1.6997,1.7372,1.7884,1.7282,0.0,1.4502,1.4032,0.0,0.0,0.0,0.0,0.0,0.0,0.0,0.0,0.0,0.0,0.0,0.0,0.0,0.0,0.0,0.0,0.0,0.0,0.0,0.0,0.0,0.0,0.948,0.9752,0.9174,0.8532,0.0,0.8269,0.8063,0.7755,0.771,0.0,0.0,0.0,0.0,0.0,0.0,0.0,1.0158,1.0667,1.0991,1.0991,1.0991,1.0595,0.9653,1.0237,1.0625,1.0508,0.9508,0.9534,1.0913,0.9487,0.0,0.0,0.0,0.0,0.0,0.0,0.0,0.0,0.0,0.0,0.0,0.0,0.0,0.0,0.0,0.0,0.0,0.0,0.0,0.0,0.0,0.0,0.0,0.0,0.0,0.0,0.0,0.0,0.0,1.3728,1.3808,1.3139,1.3655,1.372,0.0,0.0,0.0,0.0,0.0,0.0,0.0,0.0,0.0,1.4845,1.5495,1.6162,1.6798,1.7623,1.8118,1.8321,1.8915,1.9209,1.9209,1.9209,1.9465,1.9895,1.9383,1.8676,1.7772,1.6312,1.5264,1.4471,0.0,0.0,0.0,0.0,1.2644,1.2597,1.2819,1.2825,0.0,1.2278,0.0,0.0,0.0,0.0,0.0,0.0,0.0,0.0,0.0,0.0,1.1425,1.1807,1.165,1.1175,1.0346,1.0554,1.0492,0.0,0.8534,0.8482,0.9225,0.0,0.0,0.0,0.0,1.1142,1.0736,1.1483,1.1828,1.1255,1.1194,1.1236,1.1334,1.1167,1.1445,1.2342,1.1905,1.159,1.1543,1.0705,0.9824,0.0,0.0,0.0,0.0,0.0,0.0,0.0,0.0,0.0,0.0,0.0,0.0,0.0,0.0,0.0,0.0,0.0,0.0,0.0,0.0,0.0,0.0,0.0,0.0,0.0,0.0,0.0,0.0,1.3898,1.4125,1.3448,1.4101,1.4209,0.0,0.0,0.0,0.0,0.0,0.0,1.4609,1.5427,1.6126,1.6627,1.7359,1.8121,1.8913,1.9484,1.9944,2.0287,2.0742,2.0999,2.1079,2.1079,2.1218,2.1416,2.0845,2.0583,2.0429,1.8267,1.6957,1.6232,1.5571,1.5274,1.5199,1.5015,1.504,1.5176,1.5454,1.5397,1.5091,1.4397,0.0,1.3327,1.2209,0.0,0.0,0.0,0.0,1.2423,1.3104,1.3204,1.3257,1.3684,1.3693,1.3302,1.2198,1.2553,1.2447,0.0,0.964,0.9778,1.0848,0.0,0.0,0.0,0.0,1.2394,1.1886,1.2576,1.2851,1.2166,1.2034,1.2193,1.2654,1.2266,1.2555,1.3849,1.3637,1.3205,1.264,1.1723,1.0615,0.9312,0.0,0.0,0.0,0.0,0.0,0.0,0.0,0.0,0.0,0.0,0.0,0.0,0.0,0.0,0.0,0.0,0.0,0.0,0.0,0.0,0.0,0.0,0.0,0.0,0.0,0.0,0.0,0.0,0.0,1.3102,1.4121,0.0,0.0,0.0,0.0,1.4428,1.5579,1.6283,1.6283,1.7767,1.8626,1.8655,1.9558,2.021,2.0582,2.0926,2.1276,2.1598,2.1635,2.1825,2.2125,2.2125,2.2133,2.2133,2.1774,2.162,2.1467,1.9519,1.8489,1.8099,1.7286,1.7051,1.7079,1.6437,1.649,1.6808,1.6393,1.6031,1.5843,1.6358,1.5959,1.5213,1.4885,1.4566,0.0,0.0,1.4741,1.5262,1.5557,1.5114,1.4683,1.5023,1.4329,1.358,1.3507,1.3527,1.2926,0.0,1.1112,1.1723,1.1655,0.0,1.1667,1.1855,1.2877,1.379,1.4255,1.4256,1.4292,1.4507,1.4297,1.3745,1.278,1.3589,1.4178,1.4262,1.3206,1.3252,1.4782,1.2025,1.0676,1.1144,0.9467,0.0,0.0,0.0,0.0,0.0,0.0,0.0,0.0,0.0,0.0,0.0,0.0,0.0,0.0,0.0,0.0,0.0,0.0,0.0,0.0,0.0,0.0,0.0,0.0,0.0,0.0,0.0,0.0,1.5217,1.6122,0.0,1.5459,1.5777,1.6122,1.6294,1.7323,1.8133,1.8558,1.9499,2.0114,2.034,2.1094,2.1635,2.1913,2.2256,2.2476,2.2608,2.2608,2.2667,2.2769,2.2564,2.2579,2.2747,2.2235,2.2118,2.2205,2.1349,2.053,1.9773,1.9144,1.8796,1.8603,1.8142,1.7975,1.7942,1.7714,1.7458,1.7162,1.6808,1.6227,1.5606,1.5342,1.5286,1.5374,1.5603,1.5944,1.6393,1.7055,1.7016,1.6917,1.7242,1.7038,1.6455,1.538,1.5688,1.5638,1.3843,1.3116,1.3072,1.393,1.3899,1.3913,1.4334,1.5113,1.5479,1.501,1.5474,1.5624,1.5088,1.4745,1.468,1.499,1.4582,1.45,1.4985,1.4602,1.4188,1.3793,1.2725,1.1586,1.0424,0.9766,0.9163,0.0,0.0,0.0,0.0,0.0,0.0,0.0,0.0,0.0,0.0,0.0,0.0,0.0,0.0,0.0,0.0,0.0,0.0,0.0,0.0,0.0,0.0,0.0,0.0,0.0,0.0,1.6788,1.7012,1.7894,1.8186,1.7444,1.7683,1.7994,1.8259,1.9111,1.9856,2.0411,2.1013,2.143,2.1664,2.2213,2.2586,2.2768,2.2988,2.309,2.309,2.309,2.309,2.3083,2.2871,2.2893,2.3084,2.2674,2.2608,2.2754,2.2579,2.2111,2.1445,2.0763,2.0373,2.0129,1.9671,1.9394,1.9209,1.8961,1.8755,1.8503,1.7823,1.7196,1.6676,1.6493,1.6488,1.6595,1.6814,1.7081,1.7442,1.8016,1.8169,1.8216,1.8444,1.8504,1.8198,1.7072,1.7308,1.745,1.65,1.53,1.4739,1.5672,1.5655,1.5633,1.6043,1.6447,1.6502,1.5948,1.6364,1.6489,1.5929,1.5488,1.5526,1.6236,1.5386,1.5011,1.5493,1.5526,1.5042,1.3925,1.3564,1.2517,1.0648,0.9965,0.9343,0.8769,0.0,0.0,0.0,0.0,0.0,0.0,0.0,0.0,0.0,0.0,0.0,0.0,0.0,0.0,0.0,0.0,0.0,0.0,0.0,0.0,0.0,0.0,0.0,1.4995,1.637,1.7631,1.8316,1.9283,1.9745,1.9437,1.9707,2.0002,2.0276,2.0882,2.1415,2.1737,2.23,2.2622,2.2622,2.2929,2.309,2.309,2.309,2.309,2.309,2.309,2.309,2.309,2.309,2.309,2.309,2.309,2.309,2.309,2.309,2.309,2.3018,2.2103,2.173,2.1657,2.0982,2.0737,2.0616,2.0026,1.9815,1.9759,1.9507,1.9001,1.8515,1.8529,1.8286,1.8022,1.8042,1.827,1.8504,1.8531,1.8531,1.8531,1.8531,1.8531,1.8531,1.8504,1.8263,1.8116,1.8437,1.7549,1.6747,1.6734,1.6734,1.6734,1.672,1.6714,0.0,1.7166,1.6927,1.6853,1.7186,1.6684,1.6317,1.631,1.6012,1.5815,1.5795,1.5788,1.5673,1.5398,1.4509,1.3385,1.2027,1.0125,0.9131,0.9096,0.0,0.0,0.0,0.0,0.0,0.0,0.0,0.0,0.0,0.0,0.0,0.0,0.0,0.0,0.0,0.0,0.0,0.0,0.0,0.0,0.0,0.0,1.7285,1.7039,1.8218,1.9519,2.0633,2.1225,2.1576,2.1679,2.1781,2.1957,2.2278,2.2468,2.2717,2.3054,2.2995,2.2958,2.2958,2.3046,2.309,2.309,2.309,2.309,2.309,2.309,2.309,2.309,2.309,2.309,2.309,2.309,2.309,2.309,2.309,2.309,2.3068,2.282,2.2579,2.2307,2.1933,2.1356,2.071,2.0292,1.9997,1.9794,1.971,1.9285,1.8837,1.9077,1.8789,1.8452,1.8882,1.8906,1.8851,1.9086,1.9154,1.9154,1.9154,1.9154,1.9093,1.8837,1.8716,1.8616,1.8517,1.8036,1.7582,1.7395,1.7354,1.7294,1.7086,1.7234,0.0,1.7481,1.7408,1.7381,1.7481,1.7166,1.6846,1.6607,1.6332,1.5984,1.5545,1.5518,1.5384,1.512,1.4862,1.3875,1.2039,1.0816,0.9824,0.0,0.0,0.0,0.0,0.0,0.0,0.0,0.0,0.0,0.0,0.0,0.0,0.0,0.0,0.0,0.0,0.0,0.0,0.0,0.0,0.0,0.0,1.7947,1.905,1.9396,2.0091,2.1013,2.2154,2.2579,2.2893,2.3201,2.3237,2.3252,2.331,2.3435,2.3479,2.3398,2.334,2.3252,2.3097,2.309,2.309,2.309,2.309,2.309,2.309,2.3245,2.3245,2.3097,2.3252,2.3222,0.0,2.309,2.309,2.309,2.309,2.309,0.0,0.0,0.0,0.0,0.0,2.1845,2.1338,2.1009,2.0665,2.0358,2.0224,1.9765,1.9303,1.9514,1.9246,1.8948,1.9301,1.9342,1.9318,1.952,1.9561,1.9561,1.9561,1.9488,1.9348,1.9145,1.8997,1.8897,1.8879,1.8517,0.0,1.8156,1.7923,1.7762,1.7742,1.7762,1.7776,1.7776,1.7662,1.7595,1.7595,1.736,1.7066,1.6734,1.6452,0.0,0.0,0.0,1.5504,1.5342,1.4505,0.0,0.0,0.0,1.0113,0.9975,0.0,0.0,0.0,0.9116,0.908,0.0,0.0,0.0,0.0,0.0,0.0,0.0,0.0,0.0,0.0,0.0,0.0,0.0,0.0,0.0,0.0,1.9197,2.0485,2.1686,2.192,2.2279,2.312,2.3508,2.3837,2.4175,2.4205,2.4088,2.3779,2.4007,2.3897,2.3303,0.0,0.0,0.0,0.0,2.32,2.32,2.32,2.32,2.3223,2.3508,2.3501,2.323,2.3515,2.3493,2.32,2.3179,2.3164,2.3148,2.3128,2.309,2.3068,2.2776,2.2666,2.2629,2.2345,2.225,2.2199,2.1862,0.0,0.0,2.091,2.042,1.9965,1.995,1.9767,1.9553,1.9553,1.969,1.9853,1.9853,1.9853,1.984,1.9806,1.9614,1.9435,1.9401,1.9173,1.9037,1.9348,1.8946,1.8631,1.891,1.8456,1.8163,1.8464,1.825,1.8042,1.7995,1.7789,1.7635,1.7602,0.0,0.0,1.678,1.6499,1.6205,1.5875,1.5821,1.5808,1.5808,1.4034,1.339,1.4112,1.1363,1.0306,1.1016,1.006,0.9603,0.9595,0.9291,0.925,0.0,0.0,0.0,0.0,0.0,0.0,0.0,0.0,0.0,0.0,0.0,0.0,0.0,0.0,0.0,1.9474,2.0867,2.1994,2.2732,2.3288,2.3707,2.389,2.4197,2.4543,2.4873,2.4902,2.4873,2.4814,2.4624,2.4456,2.4324,2.4117,2.3978,2.3912,2.3912,2.3912,2.3912,2.3912,2.3912,2.3912,0.0,0.0,2.3912,2.3978,2.397,2.3897,2.3618,2.3501,2.3479,2.32,2.309,2.3083,2.3024,2.3002,2.2958,2.2637,2.252,2.2476,2.2191,2.1883,2.1591,2.1533,2.1234,2.0934,2.0934,2.0697,0.0,2.0451,2.0296,2.0117,2.0117,2.0117,2.0072,1.9853,1.976,1.9667,1.9448,1.9354,1.9328,1.9388,1.9093,1.8917,1.9246,1.8805,1.8424,1.8484,1.8444,1.8303,1.8036,1.7949,1.7836,1.7622,1.7542,1.7408,1.7126,1.6806,1.6493,1.6218,1.5953,1.5808,1.5808,1.5415,1.4507,1.3047,1.2405,1.1387,0.9904,0.9698,0.9603,0.9599,0.9535,0.9518,0.0,0.0,0.0,0.0,0.0,0.0,0.0,0.0,0.0,0.0,0.0,1.6904,0.0,0.0,1.9683,2.0984,2.2023,2.2871,2.3508,2.4036,2.4344,2.4344,2.4646,2.491,2.5071,2.5215,2.5178,2.4873,2.4844,2.4705,2.4375,2.4344,2.4271,2.4102,2.4102,2.4102,2.4102,2.4102,2.4102,2.4102,2.4263,2.4256,2.4102,2.4271,2.4256,2.408,2.3751,2.3596,2.3574,2.3245,2.309,2.309,2.309,2.309,2.3075,2.2907,2.2849,2.2805,2.2498,2.2195,2.1915,2.1749,2.1469,2.1201,2.1193,2.097,2.0696,2.0696,2.0584,2.0454,2.0454,2.0326,2.0164,2.0039,1.98,1.9561,1.9428,1.9395,1.9395,1.9395,1.926,1.9192,1.9368,1.9154,1.8945,1.8945,1.8804,1.8643,1.8476,1.8329,1.8123,1.7836,1.7802,1.7635,1.7226,1.6765,1.6439,1.631,1.5992,1.5808,1.5808,1.5314,1.4807,1.4256,1.2739,1.1687,1.1155,1.0113,0.9603,0.9603,0.9603,0.9603,0.0,0.0,0.0,0.0,0.0,0.0,0.0,0.0,1.6438,1.7475,1.8001,1.8557,1.9497,2.0391,2.1306,2.2213,2.296,2.3574,2.4117,2.4492,2.4697,2.4697,2.4932,2.511,2.511,2.531,2.522,2.4734,2.4956,2.4858,2.4315,2.4551,2.458,2.43,2.4293,2.4293,2.4293,2.4293,2.4293,2.4309,2.4573,2.4558,2.43,2.458,2.4514,2.4168,2.3764,2.3559,2.3479,2.32,2.309,2.309,2.309,2.309,2.309,2.309,2.309,2.3053,2.279,2.2513,2.2235,2.1968,2.1686,2.1459,2.1384,2.1184,2.0959,2.0882,2.0836,2.0777,2.0777,2.0581,2.0357,2.0319,1.9975,1.9635,1.9561,1.9507,1.9481,1.9481,1.9435,1.9395,1.9395,1.9395,1.9395,1.9395,1.9165,1.8977,1.8917,1.8704,1.8443,1.8122,1.8042,1.7776,1.7253,1.6751,1.6457,1.6384,1.6079,1.59,1.59,1.5053,1.4885,1.5505,1.286,1.1792,1.24,1.0527,0.9603,0.9603,0.9603,0.9603,1.679,1.668,1.7077,1.7555,1.7576,1.7624,0.0,0.0,1.8551,1.899,1.9529,2.0152,2.0867,2.1554,2.2235,2.2885,2.3809,2.4463,2.4536,2.4829,2.5034,2.5034,2.5088,2.511,2.511,2.5122,2.5115,2.5042,2.5088,2.5073,2.4983,2.502,2.5036,2.5,2.5,2.5,2.5,2.5,2.5,2.5,2.5036,2.502,2.5,2.5036,2.4858,2.4514,2.3866,2.3427,2.3148,2.3128,2.309,2.309,2.309,2.309,2.309,2.309,2.309,2.309,2.3053,2.2833,2.2554,2.2503,2.248,2.2389,2.2098,2.1968,2.1881,2.159,2.1281,2.1062,2.1062,2.1036,2.0949,2.0704,2.0597,2.047,2.0164,1.9918,1.9753,1.9753,1.9561,1.9395,1.9395,1.9395,1.9395,1.9395,1.9368,1.924,1.8944,1.8863,1.875,1.847,1.8176,1.7776,1.7253,1.7146,1.6966,1.6673,1.6398,1.6238,1.6238,1.5852,1.5267,1.4478,1.3191,1.2145,1.1365,1.0183,0.9603,0.9603,0.9603,0.9603,1.8603,1.8422,0.0,0.0,1.9264,1.9669,2.0079,1.9908,1.9921,2.0807,2.1193,2.1562,2.2183,2.2849,2.3451,0.0,2.4338,2.4668,2.4858,2.4836,2.4807,2.4807,2.4639,2.4675,2.5056,2.5237,2.5274,2.5108,2.511,2.511,2.511,2.511,2.511,2.511,2.511,2.511,2.511,2.511,2.511,2.511,2.511,2.511,2.511,2.511,2.491,2.458,2.4095,2.3691,2.3376,2.3186,2.309,2.309,2.309,2.309,2.309,2.309,2.309,2.309,2.309,2.3002,2.2893,2.2893,2.2893,2.2862,2.2715,2.2552,2.2362,2.2221,2.1938,2.1639,2.1434,2.1281,2.1071,2.0764,2.0541,2.0366,2.023,2.011,2.0039,2.0039,1.982,1.9634,1.9634,1.9494,1.9395,1.9395,1.9395,1.9354,1.9213,1.92,1.9072,1.8771,1.847,1.8123,1.7709,1.7522,1.7307,1.7006,1.6699,1.6526,1.6526,1.6394,1.6131,1.5695,1.4483,1.3372,1.2357,1.1125,1.0207,0.9603,0.9603,0.9603,1.9864,0.0,0.0,2.0312,2.0971,2.1653,2.1947,2.1531,2.1398,2.25,2.2647,2.2755,2.3281,2.3853,2.4324,2.4565,2.4683,2.4793,2.4939,2.4756,2.4536,2.4353,2.419,2.4249,2.4653,2.5022,2.5205,2.51,2.511,2.511,2.511,2.511,2.511,2.511,2.511,2.511,2.511,2.511,2.511,2.511,2.511,2.511,2.5102,2.4998,2.4829,2.4587,2.4258,2.3912,2.3574,2.334,2.317,2.309,2.309,2.309,2.309,2.309,2.309,2.309,2.309,2.309,2.309,2.309,2.309,2.309,2.309,2.2871,2.259,2.259,2.2362,2.2017,2.1686,2.1466,2.1224,2.0888,2.0619,2.0444,2.0444,2.0399,2.0339,2.0339,2.0105,1.9905,1.9905,1.9694,1.9515,1.9515,1.9448,1.9395,1.9395,1.9395,1.9266,1.8944,1.8738,1.8477,1.8169,1.7963,1.7735,1.7441,1.7114,1.6927,1.6846,1.6747,1.6707,1.6707,1.5469,1.432,1.3247,1.1947,1.0751,0.9685,0.9624,0.9603,0.0,0.0,2.1436,2.1833,2.2635,2.3412,2.3756,2.3401,2.3215,2.3902,2.3773,2.3654,2.4007,2.4344,2.4587,2.4602,2.4866,2.4968,2.4661,2.4609,2.4368,2.3714,2.3912,2.3978,0.0,2.4234,2.4763,2.508,2.511,2.511,2.511,2.511,2.511,2.511,2.511,2.511,2.511,2.511,2.511,2.511,2.511,2.511,2.5095,2.4763,2.4609,2.4587,2.4258,2.3912,2.3596,2.3581,2.3391,2.309,2.309,2.309,2.309,2.309,2.309,2.309,2.309,2.309,2.309,2.309,2.309,2.309,2.309,2.2871,2.259,2.259,2.2362,2.2017,2.1686,2.1585,2.1499,2.1175,2.1089,2.1066,2.1066,2.0877,2.0677,2.0677,2.0421,2.019,2.019,1.9965,1.9786,1.9786,1.9561,1.9395,1.9395,1.9395,1.9266,1.8944,1.889,1.8777,1.8518,1.8484,1.8337,1.7996,1.7716,1.7454,1.7199,1.6866,1.6707,1.6707,1.5702,1.4589,1.3394,1.218,1.1,0.9884,0.9693,0.9603,2.1337,0.0,2.3462,2.3772,2.4459,2.5164,2.5536,2.5517,2.5425,2.5425,2.4494,2.3625,2.3458,2.335,2.3265,2.3265,2.411,2.4653,2.4324,2.4263,2.442,2.4816,2.4024,0.0,0.0,0.0,0.0,2.6071,2.5305,2.5253,2.6369,2.5584,2.5517,2.6401,2.5568,2.5534,2.6418,2.5534,2.511,2.511,2.511,2.511,2.5102,2.4976,2.4924,2.4895,2.4337,2.4036,2.3897,2.3449,2.3208,2.309,2.309,2.309,2.309,2.309,2.309,2.309,2.309,2.309,2.309,2.309,2.309,2.309,2.309,2.3012,2.2941,2.2941,2.2684,2.2346,2.2017,2.1765,2.1513,2.1188,2.1093,2.1093,2.1093,2.1036,2.0962,2.0962,2.0728,2.0528,2.0528,2.0265,2.0012,1.9826,1.9567,1.9395,1.9395,1.9395,1.9361,1.9246,1.9233,1.9113,1.879,1.8764,1.8637,1.835,1.8043,1.7816,1.7736,1.7448,1.7301,1.7301,1.6787,1.5978,1.4859,1.3468,1.2244,1.1208,1.0373,0.9994,2.3608,2.4394,2.533,2.5624,2.6105,2.6544,2.6685,2.6658,2.659,2.6545,2.4918,2.3526,2.3671,2.2834,2.2183,2.2425,2.3085,2.356,2.3559,2.3988,2.4324,2.4455,2.4159,2.4618,0.0,0.0,0.0,2.6309,2.5715,2.5554,2.6167,2.5955,2.599,2.636,2.6007,2.6007,2.6384,2.5534,2.511,2.511,2.511,2.511,2.511,2.511,2.511,2.508,2.4646,2.4315,2.4066,2.3648,2.3318,2.309,2.309,2.309,2.309,2.309,2.309,2.309,2.309,2.309,2.309,2.309,2.309,2.309,2.309,2.309,2.309,2.309,2.2934,2.2699,2.2371,2.2127,2.1844,2.1393,2.1283,2.1251,2.1125,2.1093,2.1093,2.1093,2.0955,2.0844,2.0844,2.0588,2.0261,1.986,1.9654,1.9515,1.9408,1.9395,1.9395,1.9395,1.9395,1.9306,1.9098,1.9085,1.8944,1.8664,1.8436,1.8289,1.8183,1.8009,1.7869,1.7749,1.7575,1.6899,1.5692,1.427,1.3042,1.1982,1.0759,1.0199,2.6298,2.6738,2.7086,2.7356,2.761,2.7704,2.7366,2.701,2.6873,2.7287,2.509,2.3417,0.0,0.0,2.135,2.2016,2.195,2.203,2.2684,2.3825,2.4204,0.0,0.0,0.0,0.0,0.0,0.0,2.6104,0.0,2.5999,2.4882,2.6282,2.6544,2.5356,2.6418,2.6418,2.5221,2.5136,2.511,2.511,2.511,2.511,2.511,2.511,2.511,2.511,2.5056,2.469,2.4095,2.4066,2.3669,2.309,2.309,2.309,2.309,2.309,2.309,2.309,2.309,2.309,2.309,2.309,2.309,2.309,2.309,2.309,2.309,2.309,2.309,2.2996,2.2675,2.2574,2.2386,2.1765,2.1607,2.1513,2.1188,2.1125,2.1125,2.1093,2.1093,2.1093,2.1093,2.0898,2.0516,1.9933,1.9846,1.9741,1.9435,1.9395,1.9395,1.9395,1.9395,1.9395,1.9395,1.9395,1.926,1.895,1.8917,1.879,1.8524,1.8511,1.835,1.8029,1.8002,1.7339,1.5999,1.4601,1.3346,1.2262,1.0866,1.0228,2.7206,2.8583,2.9978,2.9267,2.9733,3.0244,2.9815,2.9331,2.8833,2.8298,2.5353,2.2891,0.0,0.0,0.0,2.0977,2.2228,0.0,2.5085,2.4884,0.0,2.7969,0.0,2.7145,2.9983,2.9192,0.0,0.0,2.7357,2.6793,2.7958,2.7445,2.7411,2.8122,2.6501,2.5947,2.666,2.5618,2.511,2.511,2.511,2.511,2.511,2.511,2.511,2.5064,2.4573,2.4256,2.4066,2.3559,2.3244,2.309,2.309,2.309,2.309,2.309,2.309,2.309,2.309,2.309,2.309,2.309,2.309,2.309,2.309,2.309,2.309,2.309,2.2918,2.2707,2.2621,2.2237,2.1875,2.1954,2.1781,2.1576,2.1481,2.1466,2.1409,2.1156,2.1093,2.1093,2.1093,2.1049,2.0875,2.0523,2.047,2.0202,1.9488,1.9395,1.9395,1.9395,1.9395,1.9395,1.9395,1.9395,1.9361,1.9273,1.9045,1.8877,1.8804,1.8604,1.8457,1.837,1.8129,1.7814,1.7465,1.5169,1.3904,1.3569,1.1527,1.0572,2.947,3.0833,3.1912,3.086,3.1052,3.1191,2.9965,2.9418,2.8889,2.7839,2.4892,0.0,0.0,0.0,0.0,0.0,0.0,0.0,2.4509,2.5945,2.7308,0.0,2.8626,0.0,3.1145,3.0436,3.0005,0.0,2.903,2.8426,2.8991,2.8393,2.8098,2.8262,2.6778,2.6074,2.6275,2.6685,2.6292,2.511,2.5695,2.5661,2.511,2.511,2.5012,2.4858,0.0,2.4153,2.3853,2.3471,2.3222,2.309,2.309,2.309,2.309,2.309,2.309,2.309,2.309,2.309,2.309,2.309,2.309,2.309,2.309,2.309,2.309,2.309,2.2965,2.2825,2.2825,2.2543,2.2268,2.2315,2.2174,2.2001,2.1844,2.1828,2.1718,2.1378,2.1204,2.1093,2.1093,2.1093,2.1009,2.0737,2.0706,2.0423,1.9667,1.9574,1.9535,1.9408,1.9395,1.9395,1.9395,1.9395,1.9395,1.9395,1.9226,1.9118,1.9118,1.8972,1.8832,1.8684,1.8376,1.7897,1.7245,1.5135,1.3841,1.3315,1.1528,1.0706,3.2107,3.2978,3.3157,3.2225,3.2001,3.1443,2.9236,2.8454,2.7826,2.6572,0.0,2.199,2.2428,2.0704,1.9438,2.0073,0.0,2.3235,2.362,2.702,2.8926,2.7424,3.0008,3.1591,3.0788,3.0307,3.0307,3.101,3.0934,3.0277,2.8921,2.9128,2.8618,2.72,2.7127,2.6627,2.5652,2.7825,2.7717,2.5382,2.6368,2.6234,2.511,2.511,2.491,2.4602,2.4558,0.0,2.3596,2.3545,2.3362,2.309,2.309,2.309,2.309,2.309,2.309,2.309,2.309,2.309,2.309,2.309,2.309,2.309,2.309,2.309,2.309,2.309,2.309,2.309,2.309,2.3074,2.2965,2.2715,2.2628,2.2512,2.2237,2.2095,2.1954,2.1655,2.133,2.1093,2.1093,2.1093,2.1022,2.0784,2.075,2.055,1.9987,1.9846,1.9701,1.9428,1.9395,1.9395,1.9395,1.9395,1.9395,1.9395,1.9395,1.9395,1.9395,1.9395,1.926,1.8971,1.8698,1.7831,1.6363,1.4896,1.3562,1.2377,1.1232,1.0706,3.2931,3.3687,3.3673,3.3542,3.3325,3.2563,3.047,2.8481,0.0,0.0,0.0,2.0698,2.094,1.9833,1.9604,2.1846,0.0,0.0,0.0,0.0,2.8622,0.0,0.0,0.0,0.0,0.0,0.0,0.0,0.0,3.0996,2.9219,2.943,2.8968,2.7548,2.7237,2.7543,2.8485,2.7808,2.7211,2.6744,2.588,2.5339,2.511,2.511,2.491,2.4587,2.43,0.0,2.3574,2.3303,2.3148,2.309,2.309,2.309,2.309,2.309,2.309,2.309,2.309,2.309,2.309,2.309,2.309,2.309,2.309,2.309,2.309,2.309,2.309,2.309,2.309,2.2887,2.2731,2.2957,2.2793,2.2581,2.2534,2.208,2.167,2.1607,2.133,2.1093,2.1093,2.1093,2.1073,2.1042,2.1036,2.0909,2.0583,2.0115,1.9701,1.9428,1.9395,1.9395,1.9395,1.9395,1.9395,1.9395,1.9395,1.9395,1.9395,1.9395,1.9368,1.9306,1.8998,1.813,1.6715,1.5228,1.3799,1.2377,1.1232,1.0706,3.3452,3.437,3.4429,3.3958,3.3619,3.259,2.9544,0.0,0.0,0.0,0.0,1.9859,2.0493,0.0,0.0,0.0,0.0,0.0,0.0,0.0,0.0,0.0,0.0,0.0,0.0,0.0,0.0,0.0,0.0,3.2335,3.143,3.0841,2.9892,2.8477,2.8988,2.8912,2.8106,2.8895,2.8205,2.6057,2.61,2.5779,2.511,2.511,2.491,2.4595,2.4434,0.0,2.3581,2.3427,2.3267,2.309,2.309,2.309,2.309,2.309,2.309,2.309,2.309,2.309,2.309,2.309,2.309,2.309,2.309,2.309,2.309,2.309,2.309,2.309,2.309,2.2988,2.2903,2.3066,2.2988,2.2863,2.2863,2.2331,2.1859,2.1859,2.145,2.1093,2.1093,2.1093,2.1093,2.1093,2.1093,2.0933,2.0501,2.0185,1.9913,1.9641,1.9488,1.9395,1.9395,1.9395,1.9395,1.9395,1.9395,1.9395,1.9395,1.9395,1.9395,1.9395,1.9078,1.8279,1.6995,1.5386,1.3973,1.2725,1.1335,1.0759,3.3848,3.4756,3.4697,3.4143,3.3485,3.1951,2.8028,2.5668,0.0,0.0,2.0171,1.8991,2.0168,0.0,0.0,0.0,0.0,0.0,0.0,0.0,0.0,0.0,0.0,0.0,0.0,0.0,0.0,0.0,0.0,0.0,3.3075,3.1651,3.0511,2.9777,3.0762,3.0239,2.8031,2.9899,2.9059,2.5534,2.6301,2.6124,2.511,2.511,2.491,2.4602,2.4512,0.0,0.0,2.3515,2.334,2.309,2.309,2.309,2.309,2.309,2.309,2.309,2.309,2.309,2.309,2.309,2.309,2.309,2.309,2.309,2.309,2.309,2.309,2.309,2.309,2.309,2.309,2.309,2.309,2.309,2.309,2.2574,2.2095,2.2095,2.156,2.1093,2.1093,2.1093,2.1093,2.1093,2.1093,2.0926,2.045,2.0337,2.0225,2.0028,1.9649,1.9395,1.9395,1.9395,1.9395,1.9395,1.9395,1.9395,1.9395,1.9395,1.9395,1.9395,1.9138,1.8408,1.7203,1.555,1.4181,1.3065,1.1516,1.0883,3.424,3.4502,3.3838,3.4528,3.3128,3.0605,2.6824,0.0,0.0,2.0704,1.8677,1.7628,1.937,1.8551,0.0,0.0,0.0,2.2354,0.0,0.0,0.0,0.0,0.0,0.0,0.0,0.0,0.0,0.0,0.0,0.0,3.2001,3.0313,3.0057,3.1511,3.1393,3.1185,3.0927,2.9891,2.8559,2.6903,2.5813,2.5221,2.511,2.511,2.491,2.4587,2.4271,0.0,0.0,2.3274,2.3135,2.309,2.309,2.309,2.309,2.309,2.309,2.309,2.309,2.309,2.309,2.309,2.309,2.309,2.309,2.309,2.309,2.309,2.309,2.309,2.309,2.309,2.309,2.309,2.309,2.309,2.309,2.2574,2.2095,2.2095,2.156,2.1093,2.1093,2.1093,2.1093,2.1093,2.1093,2.1073,2.102,2.0795,2.0637,2.0617,1.989,1.9395,1.9395,1.9395,1.9395,1.9395,1.9395,1.9395,1.9395,1.9395,1.9395,1.9395,1.9368,1.8638,1.7203,1.5885,1.4497,1.307,1.1757,1.1155,3.3931,3.429,3.3647,3.4233,3.2324,2.9429,2.608,0.0,2.0214,1.929,1.7601,1.6816,1.8514,1.8326,1.8134,0.0,0.0,0.0,0.0,0.0,0.0,0.0,0.0,0.0,0.0,0.0,0.0,0.0,0.0,0.0,3.2787,3.2108,3.2041,3.2739,3.1816,3.0895,3.0037,2.8641,2.7253,2.5897,2.5356,2.511,2.511,2.511,2.491,2.4595,2.4463,0.0,0.0,2.3457,2.3288,2.309,2.309,2.309,2.309,2.309,2.309,2.309,2.309,2.309,2.309,2.309,2.309,2.309,2.309,2.309,2.309,2.309,2.309,2.309,2.309,2.309,2.309,2.309,2.309,2.309,2.309,2.2738,2.2339,2.2142,2.1718,2.1346,2.1125,2.1093,2.1093,2.1093,2.1093,2.1049,2.0884,2.0764,2.0623,2.0412,1.994,1.9641,1.9641,1.9495,1.9395,1.9395,1.9395,1.9395,1.9395,1.9395,1.9395,1.9395,1.9395,1.9117,1.8516,1.6351,1.5056,1.4551,1.2255,1.1266,3.1909,3.2898,3.3024,3.3225,3.1218,2.8413,0.0,0.0,1.9187,1.8453,1.6935,1.6267,1.7987,1.7994,1.7719,0.0,0.0,1.9824,0.0,0.0,0.0,0.0,0.0,0.0,0.0,0.0,0.0,0.0,0.0,0.0,3.3402,3.3013,3.2781,3.2781,3.1403,3.0005,2.8592,2.761,2.6435,2.511,2.511,2.511,2.5102,2.5007,2.4822,2.4587,2.438,0.0,0.0,2.3493,2.3318,2.309,2.309,2.309,2.309,2.309,2.309,2.309,2.309,2.309,2.309,2.309,2.309,2.309,2.309,2.309,2.309,2.309,2.309,2.309,2.309,2.309,2.309,2.309,2.309,2.309,2.309,2.2847,2.2534,2.2292,2.1907,2.156,2.1418,2.1308,2.1251,2.1251,2.1251,2.1146,2.086,2.0817,2.0728,2.0484,2.0234,1.9987,1.9813,1.9627,1.9488,1.9401,1.9395,1.9395,1.9395,1.9395,1.9395,1.9395,1.9395,1.9214,1.8829,1.6521,1.527,1.498,1.2522,1.1455,2.7733,2.991,3.1651,3.1387,2.9758,2.7524,0.0,0.0,1.8791,1.8386,1.6756,1.6002,1.794,1.7274,1.6613,1.7207,1.8484,0.0,0.0,0.0,0.0,0.0,0.0,0.0,0.0,0.0,0.0,0.0,0.0,0.0,3.3402,3.2084,3.1313,3.1313,2.9956,2.8542,2.7128,2.712,2.6435,2.511,2.511,2.511,2.5095,2.4756,2.4609,0.0,0.0,0.0,0.0,2.3245,2.3097,2.309,2.309,2.309,2.309,2.309,2.309,2.309,2.309,2.309,2.309,2.309,2.309,2.309,2.309,2.309,2.309,2.309,2.309,2.309,2.309,2.309,2.309,2.309,2.309,2.309,2.309,2.2847,2.259,2.259,2.2064,2.1702,2.2032,2.1812,2.1592,2.1592,2.1592,2.1466,2.1134,2.1109,2.1087,2.1087,2.0857,2.045,1.9853,1.98,1.9673,1.9415,1.9395,1.9395,1.9395,1.9395,1.9395,1.9395,1.9395,1.8779,1.7513,1.6229,1.4946,1.3695,1.2393,1.1787,2.627,2.7427,2.7939,2.7957,2.6394,2.4327,2.2307,0.0,1.7486,1.68,1.5991,1.5735,1.6804,1.6677,1.6748,1.7804,1.8171,0.0,0.0,0.0,0.0,0.0,0.0,0.0,0.0,0.0,0.0,0.0,0.0,0.0,3.3402,3.1146,3.0313,3.1265,2.901,2.7543,2.7103,2.6183,2.5517,2.511,2.511,2.4976,2.4756,2.4653,2.4344,0.0,0.0,0.0,0.0,2.3134,2.309,2.309,2.309,2.309,2.309,2.309,2.309,2.309,2.309,2.309,2.309,2.309,2.309,2.309,2.309,2.309,2.309,2.309,2.309,2.309,2.309,2.309,2.309,2.309,2.309,2.309,2.309,2.3012,2.2871,2.2637,2.2425,2.223,2.2127,2.2017,2.1938,2.1938,2.1749,2.156,2.1457,2.1235,2.1093,2.1093,2.1029,2.0815,2.045,2.0049,1.976,1.9688,1.9502,1.9395,1.9395,1.9395,1.9395,1.9395,1.9395,1.8765,1.7499,1.622,1.4505,1.2397,1.1984,1.1806,0.0,2.4606,2.5454,2.5157,2.3824,0.0,0.0,0.0,1.651,1.6,1.5636,1.56,1.6279,1.64,1.6733,1.7765,1.8197,0.0,0.0,0.0,0.0,0.0,0.0,0.0,0.0,0.0,0.0,0.0,0.0,0.0,3.3402,3.1235,3.0394,3.1265,2.8073,2.6351,2.6351,2.5517,2.511,2.511,2.511,2.4917,2.4602,2.4477,2.411,0.0,0.0,0.0,0.0,2.309,2.309,2.309,2.309,2.309,2.309,2.309,2.309,2.309,2.309,2.309,2.309,2.309,2.309,2.309,2.309,2.309,2.309,2.309,2.309,2.309,2.309,2.309,2.309,2.309,2.309,2.309,2.309,2.309,2.3043,2.2832,2.2691,2.2574,2.248,2.2371,2.2292,2.2292,2.2001,2.1734,2.1623,2.1314,2.1093,2.1093,2.1093,2.1036,2.0871,2.0408,2.004,1.9813,1.9647,1.9515,1.9401,1.9395,1.9395,1.9395,1.9395,1.8546,1.6779,1.5021,1.335,1.1806,1.1806,1.1806,0.0,2.1419,0.0,0.0,0.0,0.0,0.0,0.0,0.0,1.5863,1.5622,1.56,1.6279,1.6455,1.6695,1.7277,1.8526,0.0,0.0,0.0,0.0,0.0,0.0,0.0,0.0,0.0,0.0,0.0,0.0,0.0,3.3402,3.2052,3.1249,3.1153,2.7311,2.5238,2.5238,2.5238,2.5187,2.511,2.511,2.491,2.4558,2.4234,2.3905,0.0,0.0,0.0,0.0,2.309,2.309,2.309,2.309,2.309,2.309,2.309,2.309,2.309,2.309,2.309,2.309,2.309,2.309,2.309,2.309,2.309,2.309,2.309,2.309,2.309,2.309,2.309,2.309,2.309,2.309,2.309,2.309,2.309,2.309,2.309,2.284,2.2738,2.3043,2.284,2.2628,2.259,2.2308,2.1985,2.1639,2.1314,2.1093,2.1093,2.1093,2.1093,2.1093,2.0857,2.045,1.9867,1.9813,1.9688,1.9408,1.9395,1.9395,1.9395,1.922,1.7956,1.5584,1.3039,1.1806,1.1806,1.1806,1.1806,1.6551,0.0,1.8759,1.8515,1.8295,1.7893,0.0,0.0,0.0,0.0,0.0,1.56,1.6279,1.6991,1.7606,1.8002,1.8988,2.0061,0.0,0.0,0.0,0.0,0.0,0.0,0.0,0.0,0.0,0.0,0.0,3.3402,3.3402,3.2052,3.0814,2.9737,2.7709,2.6627,2.6627,2.6627,2.6124,2.511,2.511,2.4793,2.4212,2.4139,2.3787,0.0,0.0,0.0,2.309,2.309,2.309,2.309,2.309,2.309,2.309,2.309,2.309,2.309,2.309,2.309,2.309,2.309,2.309,2.309,2.309,2.309,2.309,2.309,2.309,2.309,2.309,2.309,2.309,2.309,2.309,2.309,2.309,2.309,2.309,2.309,2.3035,2.3019,2.3097,2.3035,2.2903,2.2637,2.2308,2.1985,2.1639,2.1314,2.1093,2.1093,2.1093,2.1093,2.1093,2.0857,2.0537,2.0124,1.9905,1.9688,1.9408,1.9395,1.9395,1.9395,1.7496,1.6196,1.5584,1.3039,1.1806,1.1806,1.1806,1.1806,1.5673,1.6481,1.7278,1.7063,1.7053,1.6927,0.0,0.0,0.0,0.0,0.0,0.0,1.6836,1.7456,1.8011,1.8656,1.9765,0.0,0.0,0.0,0.0,0.0,0.0,0.0,0.0,0.0,0.0,0.0,0.0,3.3124,3.246,3.1707,3.0653,2.9231,2.846,2.7468,2.6183,2.6183,2.5829,2.511,2.4939,2.4602,2.4095,2.3941,2.3581,0.0,0.0,0.0,2.309,2.309,2.309,2.309,2.309,2.309,2.309,2.309,2.309,2.309,2.309,2.309,2.309,2.309,2.309,2.309,2.309,2.309,2.309,2.309,2.309,2.309,2.309,2.309,2.309,2.309,2.309,2.309,2.309,2.309,2.309,2.309,2.309,2.309,2.309,2.309,2.2988,2.2653,2.2308,2.1985,2.1639,2.1314,2.1093,2.1093,2.1093,2.1093,2.1093,2.0857,2.0563,2.0224,2.0057,1.9806,1.9415,1.9395,1.9127,1.8546,1.6603,1.5302,1.4723,1.2758,1.1806,1.1806,1.1806,1.1806,1.5458,1.6456,1.7372,1.6868,1.687,1.6881,1.643,0.0,0.0,0.0,0.0,0.0,0.0,0.0,0.0,0.0,0.0,0.0,0.0,0.0,0.0,0.0,0.0,0.0,0.0,0.0,0.0,0.0,0.0,3.2797,3.1378,3.149,3.0782,2.8936,2.9049,2.7809,2.5046,2.5283,2.5305,2.5102,2.4756,2.4417,2.4088,2.3742,2.342,2.309,0.0,0.0,2.309,2.309,2.309,2.309,2.309,2.309,2.309,2.309,2.309,2.309,2.309,2.309,2.309,2.309,2.309,2.309,2.309,2.309,2.309,2.309,2.309,2.309,2.309,2.309,2.309,2.309,2.309,2.309,2.309,2.309,2.309,2.309,2.309,2.309,2.309,2.309,2.2988,2.2653,2.2308,2.1985,2.1639,2.1314,2.1093,2.1093,2.1093,2.1093,2.1093,2.0857,2.0563,2.0224,2.0157,1.9927,1.9421,1.9395,1.88,1.7528,1.6249,1.4976,1.3695,1.2427,1.1806,1.1806,1.1806,1.1806,1.5746,1.6404,1.685,1.6213,1.6279,1.6411,1.6067,0.0,0.0,0.0,0.0,0.0,0.0,0.0,0.0,0.0,0.0,0.0,0.0,0.0,0.0,0.0,0.0,0.0,0.0,0.0,0.0,0.0,0.0,3.2797,3.1378,3.2428,3.1339,2.7543,2.8364,2.7507,2.4692,2.6071,2.6217,2.5102,2.4756,2.4417,2.4088,2.3742,2.342,2.309,0.0,2.309,2.309,2.309,2.309,2.309,2.309,2.309,2.309,2.309,2.309,2.309,2.309,2.309,2.309,2.309,2.309,2.309,2.309,2.309,2.309,2.309,2.309,2.309,2.309,2.309,2.309,2.309,2.309,2.309,2.309,2.309,2.309,2.309,2.309,2.309,2.309,2.309,2.2988,2.2653,2.2308,2.1985,2.1639,2.1314,2.1093,2.1093,2.1093,2.1093,2.1093,2.0857,2.0563,2.0224,1.9985,1.972,1.9408,1.9395,1.88,1.7528,1.6249,1.4976,1.3695,1.2427,1.1806,1.1806,1.1806,1.1806,1.5592,1.6122,1.6554,1.6257,1.6944,1.748,0.0,0.0,0.0,0.0,0.0,0.0,0.0,0.0,0.0,0.0,0.0,0.0,0.0,0.0,0.0,0.0,0.0,0.0,0.0,0.0,0.0,0.0,0.0,0.0,3.0746,3.147,3.0272,2.6629,2.7011,2.6342,2.4355,2.5095,2.5171,2.4565,2.4395,2.4153,2.3824,2.3479,2.3252,2.309,0.0,2.309,2.309,2.309,2.309,2.309,2.309,2.309,2.309,2.309,2.309,2.309,2.309,2.309,2.309,2.309,2.309,2.309,2.309,2.309,2.309,2.309,2.309,2.309,2.309,2.309,2.309,2.309,2.309,2.309,2.309,2.309,2.309,2.309,2.309,2.309,2.309,2.309,2.2988,2.2653,2.2308,2.1985,2.1639,2.1314,2.1093,2.1093,2.1093,2.1093,2.1093,2.0857,2.0496,2.0012,1.9726,1.9535,1.9401,1.9395,1.8473,1.6514,1.5895,1.4639,1.2664,1.2089,1.1806,1.1806,1.1806,1.1806,1.5607,1.6071,1.6517,1.6517,0.0,1.8207,0.0,0.0,0.0,0.0,0.0,0.0,0.0,0.0,0.0,0.0,0.0,0.0,0.0,0.0,0.0,0.0,0.0,0.0,0.0,0.0,0.0,0.0,0.0,0.0,2.9764,3.0236,2.9035,2.5655,2.5793,2.5291,2.4001,2.3985,2.4022,2.4102,2.4022,2.3853,2.3581,2.3244,2.309,2.309,2.309,2.309,2.309,2.309,2.309,2.309,2.309,2.309,2.309,2.309,2.309,2.309,2.309,2.309,2.309,2.309,2.309,2.309,2.309,2.309,2.309,2.309,2.309,2.309,2.309,2.309,2.309,2.309,2.309,2.309,2.309,2.309,2.309,2.309,2.309,2.309,2.309,2.309,2.2988,2.2653,2.2308,2.1985,2.1639,2.1314,2.1093,2.1093,2.1093,2.1066,2.1009,2.0817,2.047,1.9933,1.9581,1.9395,1.9395,1.9395,1.8196,1.5649,1.5604,1.4341,1.1806,1.1806,1.1806,1.1806,1.1806,1.1806,1.6232,1.6591,1.6866,1.6866,0.0,0.0,0.0,0.0,0.0,0.0,0.0,0.0,0.0,0.0,0.0,0.0,0.0,0.0,0.0,0.0,0.0,0.0,0.0,0.0,0.0,0.0,0.0,0.0,0.0,0.0,2.8386,2.9513,2.8386,2.4364,2.52,2.5045,2.3648,2.3632,2.3779,2.4095,2.3771,2.3618,2.3581,2.3244,2.309,2.309,2.309,2.309,2.309,2.309,2.309,2.309,2.309,2.309,2.309,2.309,2.309,2.309,2.309,2.309,2.309,2.309,2.309,2.309,2.309,2.309,2.309,2.309,2.309,2.309,2.309,2.309,2.309,2.309,2.309,2.309,2.309,2.309,2.309,2.309,2.309,2.309,2.309,2.309,2.2988,2.2653,2.2308,2.1985,2.1639,2.1314,2.1093,2.1093,2.1093,2.1002,2.0744,2.0704,2.0557,2.019,1.9694,1.9395,1.9395,1.9395,1.8196,1.5649,1.5604,1.4341,1.1806,1.1806,1.1806,1.1806,1.1806,1.1806,1.6052,1.6484,1.6851,1.6635,0.0,0.0,0.0,0.0,0.0,0.0,0.0,0.0,0.0,0.0,0.0,0.0,0.0,0.0,0.0,0.0,0.0,0.0,0.0,0.0,0.0,0.0,0.0,0.0,0.0,0.0,2.7543,2.8155,2.74,2.4796,2.5124,2.4665,2.3296,2.3288,2.3354,2.3479,2.3559,2.3493,2.3288,2.3164,2.309,2.309,2.309,2.309,2.309,2.309,2.309,2.309,2.309,2.309,2.309,2.309,2.309,2.309,2.309,2.309,2.309,2.309,2.309,2.309,2.309,2.309,2.309,2.309,2.309,2.309,2.309,2.309,2.309,2.309,2.309,2.309,2.309,2.309,2.309,2.309,2.309,2.309,2.309,2.309,2.2988,2.2653,2.2308,2.1985,2.1639,2.1314,2.1093,2.1093,2.1093,2.1069,2.0955,2.0797,2.0643,2.0514,2.0112,1.9826,1.9661,1.8891,1.7564,1.5634,1.4827,1.3555,1.1806,1.1806,1.1806,1.1806,1.1806,1.1806,1.5932,1.6312,1.669,0.0,0.0,0.0,0.0,0.0,0.0,0.0,0.0,0.0,0.0,0.0,0.0,0.0,0.0,0.0,0.0,0.0,0.0,0.0,0.0,0.0,0.0,0.0,0.0,0.0,0.0,0.0,0.0,2.6657,2.609,2.4525,2.4471,2.4031,2.3113,2.309,2.309,2.3097,2.3332,2.3325,2.309,2.309,2.309,2.309,2.309,2.309,2.309,2.309,2.309,2.309,2.309,2.309,2.309,2.309,2.309,2.309,2.309,2.309,2.309,2.309,2.309,2.309,2.309,2.309,2.309,2.309,2.309,2.309,2.309,2.309,2.309,2.309,2.309,2.309,2.309,2.309,2.309,2.309,2.309,2.309,2.309,2.309,2.295,2.2519,2.2252,2.1938,2.1497,2.1235,2.1093,2.1093,2.1093,2.1093,2.1093,2.0929,2.0831,2.0831,2.0606,2.0279,1.982,1.8577,1.7169,1.5639,1.4351,1.3075,1.1806,1.1848,1.1857,1.1857,1.1934,1.1958,1.599,1.614,1.64,0.0,0.0,0.0,0.0,0.0,0.0,0.0,0.0,0.0,0.0,0.0,0.0,0.0,0.0,0.0,0.0,0.0,0.0,0.0,0.0,0.0,0.0,0.0,0.0,0.0,0.0,0.0,0.0,2.5071,2.4471,2.3137,2.309,2.309,2.309,2.309,2.309,2.309,2.309,2.309,2.309,2.309,2.309,2.309,2.309,2.309,2.309,2.309,2.309,2.309,2.309,2.309,2.309,2.309,2.309,2.309,2.309,2.309,2.309,2.309,2.309,2.309,2.309,2.309,2.309,2.309,2.309,2.309,2.309,2.309,2.309,2.309,2.309,2.309,2.309,2.309,2.309,2.309,2.309,2.309,2.309,2.309,2.2871,2.2205,2.2095,2.1859,2.1188,2.1093,2.1093,2.1093,2.1093,2.1093,2.1093,2.1093,2.1093,2.1093,2.1093,2.0715,1.984,1.8568,1.7154,1.5639,1.4336,1.306,1.1806,1.1931,1.1997,1.2001,1.2203,1.2304,1.599,1.614,0.0,0.0,0.0,0.0,0.0,0.0,0.0,0.0,0.0,0.0,0.0,0.0,0.0,0.0,0.0,0.0,0.0,0.0,0.0,0.0,0.0,0.0,0.0,0.0,0.0,0.0,0.0,0.0,0.0,2.3689,2.351,2.3106,2.309,2.309,2.309,2.309,2.309,2.309,2.309,2.309,2.309,2.309,2.309,2.309,2.309,2.309,2.309,2.309,2.309,2.309,2.309,2.309,2.309,2.309,2.309,2.309,2.309,2.309,2.309,2.309,2.309,2.309,2.309,2.309,2.309,2.309,2.309,2.309,2.309,2.309,2.309,2.309,2.309,2.309,2.309,2.309,2.309,2.309,2.309,2.309,2.309,2.309,2.295,2.2512,2.2456,2.2205,2.1544,2.1251,2.1093,2.1093,2.1093,2.1093,2.1093,2.1093,2.1093,2.1093,2.1093,2.0793,2.0119,1.7994,1.6449,1.5624,1.3469,1.2175,1.1806,1.1844,1.1914,1.2001,1.2054,1.2167,1.5954,0.0,0.0,0.0,0.0,0.0,0.0,0.0,0.0,0.0,0.0,0.0,0.0,0.0,0.0,0.0,0.0,0.0,0.0,0.0,0.0,0.0,0.0,0.0,0.0,0.0,0.0,0.0,0.0,0.0,0.0,2.309,2.309,2.309,2.309,2.309,2.309,2.309,2.309,2.309,2.309,2.309,2.309,2.309,2.309,2.309,2.309,2.309,2.309,2.309,2.309,2.309,2.309,2.309,2.309,2.309,2.309,2.309,2.309,2.309,2.309,2.309,2.309,2.309,2.309,2.309,2.309,2.309,2.309,2.309,2.309,2.309,2.309,2.309,2.309,2.309,2.309,2.309,2.309,2.309,2.309,2.309,2.309,2.309,2.2988,2.2653,2.2487,2.2205,2.167,2.1418,2.1251,2.1109,2.1093,2.1093,2.1093,2.1093,2.1093,2.1093,2.1093,2.0638,1.961,1.753,1.5923,1.4941,1.2873,1.1806,1.1806,1.1934,1.204,1.2126,1.2252,1.2378,1.5903,0.0,0.0,0.0,0.0,0.0,0.0,0.0,0.0,0.0,0.0,0.0,0.0,0.0,0.0,0.0,0.0,0.0,0.0,0.0,0.0,0.0,0.0,0.0,0.0,0.0,0.0,0.0,0.0,0.0,0.0,2.3075,2.3098,2.3062,2.3046,2.3046,2.3046,2.304,2.304,2.3046,2.3046,2.3046,2.3062,2.3098,2.309,2.309,2.309,2.309,2.309,2.309,2.309,2.309,2.309,2.309,2.309,2.309,2.309,2.309,2.309,2.309,2.309,2.309,2.309,2.309,2.309,2.309,2.309,2.309,2.309,2.309,2.309,2.309,2.309,2.309,2.309,2.309,2.309,2.309,2.309,2.309,2.309,2.309,2.309,2.309,2.2996,2.2684,2.2362,2.2032,2.1734,2.1639,2.1488,2.1188,2.1125,2.1093,2.1093,2.1093,2.1093,2.1093,2.1093,2.0348,1.8671,1.7176,1.5607,1.3925,1.2526,1.1815,1.1816,1.2125,1.2284,1.2321,1.2645,1.2787,0.0,1.6385,0.0,0.0,0.0,0.0,0.0,0.0,0.0,0.0,0.0,0.0,0.0,0.0,0.0,0.0,0.0,0.0,0.0,0.0,0.0,0.0,0.0,0.0,0.0,0.0,0.0,0.0,0.0,0.0,2.2786,2.2958,2.2973,2.2717,2.271,2.271,2.271,2.2498,2.2498,0.0,2.271,2.271,2.2717,2.2973,2.309,2.309,2.309,2.309,2.309,2.309,2.309,2.309,2.309,2.309,2.309,2.309,2.309,2.309,2.309,2.309,2.309,2.309,2.309,2.309,2.309,2.309,2.309,2.309,2.309,2.309,2.309,2.309,2.309,2.309,2.309,2.309,2.309,2.309,2.309,2.309,2.309,2.309,2.309,2.309,2.3082,2.2996,2.2707,2.2465,2.2386,2.1922,2.1576,2.1497,2.1267,2.1093,2.1093,2.1093,2.1093,2.1093,2.1093,2.0348,1.8671,1.7176,1.5607,1.3925,1.2526,1.1856,1.196,1.2037,1.2235,1.2543,1.2605,1.2702,0.0,0.0,0.0,0.0,0.0,0.0,0.0,0.0,0.0,0.0,0.0,0.0,0.0,0.0,0.0,0.0,0.0,0.0,0.0,0.0,0.0,0.0,0.0,0.0,0.0,0.0,0.0,0.0,0.0,2.3527,2.2645,2.2637,2.2586,2.2403,2.241,2.241,2.241,2.2272,2.2272,2.241,2.241,2.241,2.2403,2.2586,2.274,2.2863,2.2863,2.2944,2.309,2.309,2.309,2.309,2.309,2.309,2.309,2.309,2.309,2.309,2.309,2.309,2.309,2.309,2.309,2.309,2.309,2.309,2.309,2.309,2.309,2.309,2.309,2.309,2.309,2.309,2.309,2.309,2.309,2.309,2.309,2.309,2.309,2.309,2.309,2.309,2.309,2.309,2.295,2.2785,2.2621,2.2158,2.1781,2.1623,2.1299,2.1093,2.1093,2.1093,2.1093,2.1093,2.1093,2.0074,1.7781,1.695,1.5711,1.393,1.2581,1.1927,1.1997,1.2187,1.2397,1.2596,1.267,1.273,0.0,0.0,0.0,0.0,0.0,0.0,0.0,0.0,0.0,0.0,0.0,0.0,0.0,0.0,0.0,0.0,0.0,0.0,0.0,0.0,0.0,0.0,0.0,0.0,0.0,0.0,0.0,0.0,0.0,2.2541,2.2454,2.2286,2.2177,2.2118,2.2111,2.2111,2.2111,2.206,2.206,2.2111,2.2111,2.2111,2.2111,2.206,2.2213,2.2534,2.2534,2.2688,2.2952,2.2988,2.301,2.3017,2.3075,2.309,2.309,2.309,2.309,2.309,2.309,2.309,2.309,2.309,2.309,2.309,2.309,2.309,2.309,2.309,2.309,2.309,2.309,2.309,2.309,2.309,2.309,2.309,2.309,2.309,2.309,2.309,2.309,2.309,2.309,2.309,2.309,2.309,2.3043,2.2903,2.2644,2.2268,2.1907,2.1623,2.1299,2.1093,2.1093,2.1093,2.1093,2.1093,2.1093,1.9979,1.7492,1.694,1.5946,1.4345,1.2826,1.2077,1.2106,1.2434,1.2613,1.2645,1.2751,1.2803,0.0,0.0,0.0,0.0,0.0,0.0,0.0,0.0,0.0,0.0,0.0,0.0,0.0,0.0,0.0,0.0,0.0,0.0,0.0,0.0,0.0,0.0,0.0,0.0,0.0,0.0,0.0,0.0,2.4096,2.2373,2.1847,2.2067,2.2067,2.1789,2.1774,2.1774,2.1774,2.1481,2.1481,2.1774,2.1774,2.1774,2.1752,2.1467,2.1672,2.2242,2.2242,2.2279,2.2345,2.2571,2.2673,2.2702,2.2988,2.309,2.309,2.309,2.309,2.309,2.309,2.309,2.309,2.309,2.309,2.309,2.309,2.309,2.309,2.309,2.309,2.309,2.309,2.309,2.309,2.309,2.309,2.309,2.309,2.309,2.309,2.309,2.309,2.309,2.309,2.309,2.309,2.309,2.284,2.2653,2.2613,2.2048,2.1655,2.1592,2.1299,2.1093,2.1093,2.1093,2.1093,2.1093,2.1093,2.0818,2.0194,1.7926,1.6469,1.5989,1.3537,1.2345,1.2527,1.2572,1.2661,1.2767,1.2795,1.2803,1.6725,0.0,0.0,0.0,0.0,0.0,0.0,0.0,0.0,0.0,0.0,0.0,0.0,0.0,0.0,0.0,0.0,0.0,0.0,0.0,0.0,0.0,0.0,0.0,0.0,0.0,0.0,0.0,2.3939,2.2176,2.1723,2.1657,2.1569,2.1416,2.1423,2.1423,2.1423,2.1269,2.1269,2.1423,2.1423,2.1423,2.1408,2.1276,2.1467,2.1928,2.1928,2.203,2.2213,2.2323,2.2374,2.2389,2.2535,2.2689,2.2819,2.2819,2.2936,2.309,2.309,2.309,2.309,2.309,2.309,2.309,2.309,2.309,2.309,2.309,2.309,2.309,2.309,2.309,2.309,2.309,2.309,2.309,2.309,2.309,2.309,2.309,2.309,2.309,2.309,2.309,2.309,2.309,2.2809,2.259,2.259,2.2017,2.1592,2.1592,2.1299,2.1093,2.1093,2.1093,2.1093,2.1093,2.1093,2.0654,1.9683,1.7844,1.6387,1.5364,1.3453,1.2503,1.2596,1.2682,1.2743,1.2803,1.2803,1.2803,0.0,0.0,0.0,0.0,0.0,0.0,0.0,0.0,0.0,0.0,0.0,0.0,0.0,0.0,0.0,0.0,0.0,0.0,0.0,0.0,0.0,0.0,0.0,0.0,0.0,0.0,0.0,0.0,2.3641,2.1928,2.1591,2.1342,2.1196,2.1196,2.1196,2.1196,2.1196,2.1116,2.1116,2.1196,2.1109,2.1116,2.1196,2.1196,2.1342,2.1576,2.1576,2.1715,2.1942,2.2038,2.2074,2.2082,2.2169,2.2359,2.2607,2.2607,2.2812,2.309,2.309,2.309,2.309,2.309,2.309,2.309,2.309,2.309,2.309,2.309,2.309,2.309,2.309,2.309,2.309,2.309,2.309,2.309,2.309,2.309,2.309,2.309,2.309,2.309,2.309,2.309,2.3074,2.2988,2.2684,2.2433,2.2362,2.1828,2.1466,2.1466,2.1251,2.1093,2.1093,2.1093,2.1093,2.1093,2.1093,2.0586,1.9428,1.7844,1.6443,1.5227,1.3526,1.2649,1.2649,1.2755,1.2803,1.2803,1.2803,1.2803,0.0,0.0,0.0,0.0,0.0,0.0,0.0,0.0,0.0,0.0,0.0,0.0,0.0,0.0,0.0,0.0,0.0,0.0,0.0,0.0,0.0,0.0,0.0,0.0,0.0,0.0,0.0,0.0,2.3143,2.1576,2.124,2.1204,2.1196,2.1196,2.1196,2.1196,2.1196,2.0889,2.0889,2.1203,2.0882,2.0896,2.1196,2.1196,2.1204,2.1233,2.1233,2.1247,2.1284,2.1591,2.1737,2.1752,2.2074,2.2359,2.2607,2.2607,2.2812,2.309,2.309,2.309,2.309,2.309,2.309,2.309,2.309,2.309,2.309,2.309,2.309,2.309,2.309,2.309,2.309,2.309,2.309,2.309,2.309,2.309,2.309,2.309,2.309,2.309,2.309,2.309,2.2981,2.2668,2.2339,2.2017,2.1686,2.1339,2.1125,2.1125,2.1109,2.1093,2.1093,2.1093,2.1093,2.1093,2.1093,2.1055,2.0987,1.8422,1.6953,1.6877,1.4196,1.2791,1.2791,1.2799,1.2803,1.2803,1.2803,1.2803,0.0,0.0,0.0,0.0,0.0,0.0,0.0,0.0,0.0,0.0,0.0,0.0,0.0,0.0,0.0,0.0,0.0,0.0,0.0,0.0,0.0,0.0,0.0,0.0,0.0,0.0,0.0,0.0,0.0,2.1554,2.1225,2.0999,2.0882,2.0882,2.0663,2.0561,2.0561,2.0437,2.0437,2.0561,2.0437,2.0444,2.0561,2.0561,2.0684,2.0882,2.0882,2.0999,2.1204,2.1335,2.1386,2.1393,2.1511,2.1752,2.203,2.203,2.2337,2.2783,2.2783,2.2922,2.309,2.309,2.309,2.309,2.309,2.309,2.309,2.309,2.309,2.309,2.309,2.309,2.309,2.309,2.309,2.309,2.309,2.309,2.309,2.309,2.309,2.309,2.309,2.309,2.2988,2.2653,2.2308,2.1985,2.1639,2.1314,2.1093,2.1093,2.1093,2.1093,2.1093,2.1093,2.1093,2.1093,2.1093,2.1093,2.1093,1.846,1.6996,1.6996,1.4231,1.2803,1.2803,1.2803,1.2803,1.2803,1.2803,1.2803,0.0,0.0,0.0,0.0,0.0,0.0,0.0,0.0,0.0,0.0,0.0,0.0,0.0,0.0,0.0,0.0,0.0,0.0,0.0,0.0,0.0,0.0,0.0,0.0,0.0,0.0,0.0,0.0,0.0,0.0,2.1204,2.0889,2.0649,2.0539,2.032,2.0197,2.0197,2.0114,2.0114,2.0197,2.0114,2.0108,2.0197,2.0197,2.0327,2.0539,2.0649,2.0896,2.1196,2.1196,2.1196,2.1196,2.1196,2.1394,2.1693,2.1576,2.1926,2.2476,2.2571,2.2731,2.2928,2.3053,2.309,2.309,2.309,2.309,2.309,2.309,2.309,2.309,2.309,2.309,2.309,2.309,2.309,2.309,2.309,2.309,2.309,2.309,2.309,2.309,2.309,2.3019,2.2825,2.2487,2.2158,2.1812,2.1488,2.1235,2.1093,2.1093,2.1093,2.1093,2.1093,2.1093,2.1093,2.1093,2.1093,2.1093,2.1093,1.8892,1.7458,1.7012,1.47,1.3276,1.2803,1.2803,1.2803,1.2803,1.2803,1.2803,0.0,0.0,0.0,0.0,0.0,0.0,1.8184,0.0,0.0,0.0,0.0,0.0,0.0,0.0,0.0,0.0,0.0,0.0,0.0,0.0,0.0,0.0,0.0,0.0,0.0,0.0,0.0,0.0,2.1873,2.1203,2.1182,2.086,2.0517,2.0175,2.0167,2.0167,2.0167,1.9914,1.9922,2.0174,1.9907,1.9922,2.0167,2.0167,2.0188,2.021,2.0539,2.0882,2.1182,2.1203,2.1196,2.1196,2.1196,2.1408,2.165,2.1321,2.1611,2.2213,2.2475,2.2547,2.2575,2.2972,2.309,2.309,2.309,2.309,2.309,2.309,2.309,2.309,2.309,2.309,2.309,2.309,2.309,2.309,2.309,2.309,2.309,2.309,2.309,2.309,2.309,2.2832,2.2503,2.2158,2.1828,2.1481,2.1141,2.1093,2.1093,2.1093,2.1093,2.1093,2.1093,2.1093,2.1093,2.1093,2.1093,2.1093,2.1093,1.975,1.838,1.7023,1.5624,1.4214,1.2803,1.2803,1.2803,1.2803,1.2803,1.2803,1.5826,0.0,0.0,0.0,0.0,0.0,1.746,1.7906,1.8379,0.0,0.0,0.0,0.0,0.0,0.0,0.0,0.0,0.0,0.0,0.0,0.0,0.0,0.0,0.0,0.0,0.0,0.0,0.0,2.1873,2.1094,2.0853,2.0346,1.9892,1.9563,1.9556,1.9556,1.9556,1.9481,1.9481,1.9556,1.9468,1.9481,1.9556,1.9556,1.968,1.9929,2.0217,2.0532,2.086,2.1101,2.1196,2.1196,2.1196,2.1269,2.1328,2.1227,2.1314,2.153,2.19,2.2425,2.2948,2.3057,2.309,2.309,2.309,2.309,2.309,2.309,2.309,2.309,2.309,2.309,2.309,2.309,2.309,2.309,2.309,2.309,2.309,2.309,2.309,2.309,2.309,2.3012,2.2762,2.2189,2.2017,2.1749,2.1172,2.1093,2.1093,2.1093,2.1093,2.1093,2.1093,2.1093,2.1093,2.1093,2.1093,2.1093,2.1093,1.975,1.838,1.7023,1.5624,1.4214,1.2803,1.2803,1.2803,1.2803,1.2803,1.2803,0.0,0.0,0.0,0.0,0.0,0.0,1.6843,1.7077,1.7374,0.0,0.0,0.0,0.0,0.0,0.0,0.0,0.0,0.0,0.0,0.0,0.0,0.0,0.0,0.0,0.0,2.3982,2.33,2.2132,2.1521,2.0992,2.0517,2.0053,1.9655,1.9312,1.9305,1.9305,1.9305,1.9305,1.9305,1.9305,1.9305,1.9305,1.9305,1.9305,1.9408,1.9619,1.9901,2.0136,2.0362,2.0801,2.1072,2.1196,2.1196,2.1196,2.1196,2.1196,2.1198,2.1256,2.1663,2.2214,2.2778,2.302,2.3095,2.309,2.309,2.309,2.309,2.309,2.309,2.309,2.309,2.309,2.309,2.309,2.309,2.309,2.309,2.309,2.309,2.309,2.309,2.309,2.309,2.2988,2.2769,2.2371,2.2182,2.1907,2.1378,2.1314,2.1267,2.1109,2.1093,2.1093,2.1093,2.1093,2.1093,2.1093,2.1093,2.1093,2.1093,2.0319,1.8978,1.7044,1.6187,1.4798,1.2803,1.2803,1.2803,1.2803,1.2803,1.2803,0.0,0.0,0.0,0.0,0.0,0.0,1.6485,1.6496,1.6598,1.6969,0.0,0.0,0.0,0.0,0.0,0.0,0.0,0.0,0.0,0.0,0.0,0.0,0.0,0.0,2.2057,2.2234,2.1935,2.0739,2.0889,2.078,2.0188,1.9892,1.9619,1.9312,1.9305,1.9305,1.9305,1.9305,1.9305,1.9305,1.9305,1.9305,1.9305,1.9305,1.9305,1.932,1.9649,1.9802,1.9853,2.0443,2.0882,2.1145,2.1182,2.1196,2.1196,2.1196,2.1196,2.1262,2.1664,2.1935,2.2199,2.2884,2.3059,2.301,2.3078,2.3077,2.3046,2.3098,2.309,2.309,2.309,2.309,2.309,2.309,2.309,2.309,2.309,2.309,2.309,2.309,2.309,2.309,2.309,2.284,2.2637,2.2613,2.2346,2.2017,2.1655,2.1592,2.1466,2.1141,2.1093,2.1093,2.1093,2.1093,2.1093,2.1093,2.1093,2.1093,2.1093,2.1093,1.9814,1.7055,1.6689,1.5298,1.2803,1.2803,1.2803,1.2803,1.2803,1.2803,0.0,0.0,0.0,0.0,0.0,0.0,1.7011,1.7096,1.728,0.0,0.0,0.0,0.0,0.0,0.0,0.0,0.0,0.0,0.0,0.0,0.0,0.0,0.0,0.0,2.1668,2.1876,2.1604,2.038,2.0157,2.0016,1.9891,1.9576,1.9371,1.9305,1.9305,1.9305,1.9305,1.9305,1.9305,1.9305,1.9305,1.9305,1.9305,1.9305,1.9305,1.932,1.9649,1.9802,1.9853,2.0443,2.0743,2.0817,2.1094,2.1196,2.1196,2.1196,2.1196,2.1262,2.1664,2.162,2.1582,2.2722,2.2766,2.2478,2.2949,2.2862,2.2685,2.3001,2.309,2.309,2.309,2.309,2.309,2.309,2.309,2.309,2.309,2.309,2.309,2.309,2.309,2.309,2.309,2.3043,2.291,2.2637,2.2543,2.2284,2.167,2.1592,2.1466,2.1141,2.1093,2.1093,2.1093,2.1093,2.1093,2.1093,2.1093,2.1093,2.1093,2.1093,1.9814,1.7055,1.4765,1.3354,1.2803,1.2803,1.2803,1.2803,1.2803,1.2803,0.0,0.0,0.0,1.6686,0.0,0.0,0.0,1.7153,1.7264,1.7305,1.8152,0.0,0.0,0.0,0.0,0.0,0.0,0.0,0.0,0.0,0.0,0.0,0.0,0.0,2.0207,2.0436,2.0527,2.0222,1.9951,1.9802,1.9802,1.9481,1.9305,1.9305,1.9144,1.9137,1.9305,1.9124,1.9124,1.9305,1.9305,1.9305,1.9305,1.9305,1.9305,1.9312,1.9474,1.9547,1.9598,2.0202,2.0451,2.0502,2.1006,2.1196,2.1196,2.1196,2.1196,2.1233,2.143,2.1373,2.1313,2.1935,2.2082,2.2086,2.2517,2.2717,2.284,2.3033,2.309,2.309,2.309,2.309,2.309,2.309,2.309,2.309,2.309,2.309,2.309,2.309,2.309,2.309,2.309,2.309,2.3043,2.2871,2.284,2.2668,2.2151,2.1954,2.1718,2.1393,2.1204,2.1093,2.1093,2.1093,2.1093,2.1093,2.1093,2.1093,2.1093,2.1093,1.9814,1.7055,1.4231,1.2803,1.2803,1.2803,1.2803,1.2803,1.2803,1.2803,0.0,0.0,0.0,0.0,0.0,1.715,0.0,0.0,0.0,1.6835,0.0,0.0,0.0,0.0,0.0,0.0,0.0,0.0,0.0,0.0,0.0,0.0,0.0,0.0,1.8873,1.8985,1.9308,1.9801,1.9681,1.9619,1.9619,1.9415,1.9276,1.921,1.8941,1.8926,1.9202,1.8946,1.8963,1.9305,1.9305,1.9305,1.9305,1.9305,1.9305,1.9305,1.9305,1.9305,1.9349,1.9908,2.0115,2.0188,2.0918,2.1196,2.1196,2.1196,2.1196,2.1196,2.1196,2.1198,2.1198,2.1198,2.1428,2.174,2.2022,2.2488,2.2927,2.2926,2.2958,2.3002,2.3002,2.3046,2.309,2.309,2.309,2.309,2.309,2.309,2.309,2.309,2.309,2.309,2.309,2.309,2.3082,2.3012,2.2996,2.2863,2.2456,2.2174,2.1875,2.1544,2.1267,2.1093,2.1093,2.1093,2.1093,2.1093,2.1093,2.1093,2.1093,2.0589,1.9266,1.7044,1.4231,1.2803,1.2803,1.2803,1.2803,1.2803,1.2803,1.2803,0.0,0.0,0.0,0.0,1.7701,0.0,0.0,0.0,1.7776,1.796,0.0,0.0,0.0,0.0,0.0,0.0,0.0,0.0,0.0,0.0,0.0,0.0,0.0,0.0,0.0,1.8575,1.8445,1.8518,1.8752,1.8911,1.8911,1.9166,1.9153,1.8867,1.8823,1.8816,1.886,1.8823,1.8963,1.9305,1.9305,1.9305,1.9305,1.9305,1.9305,1.9305,1.9305,1.9305,1.9327,1.9693,1.9847,1.9935,2.0845,2.1196,2.1196,2.1196,2.1196,2.1196,2.1196,2.1204,2.1204,2.1204,2.1235,2.1327,2.1664,2.2008,2.231,2.2294,2.2476,2.2666,2.2666,2.2878,2.309,2.309,2.309,2.309,2.309,2.309,2.309,2.309,2.309,2.309,2.309,2.309,2.2996,2.2699,2.266,2.2425,2.1796,2.167,2.1529,2.1188,2.1125,2.1093,2.1093,2.1093,2.1093,2.1093,2.1093,2.1093,2.1093,1.8764,1.7318,1.7012,1.4231,1.2803,1.2803,1.2803,1.2803,1.2803,1.2803,1.2803,0.0,0.0,0.0,0.0,0.0,0.0,1.7936,0.0,1.7964,0.0,0.0,0.0,0.0,0.0,0.0,0.0,2.3086,0.0,0.0,0.0,0.0,0.0,0.0,0.0,0.0,0.0,0.0,0.0,1.8606,1.8721,1.8518,1.8635,1.8662,1.8511,1.8321,1.8313,1.8503,1.8503,1.8684,1.9006,1.921,1.9305,1.9305,1.9305,1.9305,1.9305,1.9305,1.9305,1.9327,1.9657,1.9802,1.9847,2.0413,2.0743,2.0933,2.1123,2.1196,2.1196,2.1196,2.1196,2.1196,2.1196,2.1205,2.1264,2.1606,2.1825,2.2031,2.2337,2.2512,2.2636,2.2841,2.2988,2.309,2.309,2.309,2.309,2.309,2.309,2.309,2.309,2.309,2.309,2.309,2.309,2.2988,2.2653,2.259,2.2425,2.1954,2.1718,2.1544,2.1409,2.122,2.1093,2.1093,2.1093,2.1093,2.1093,2.1093,2.1093,2.1093,1.846,1.6996,1.6996,1.4231,1.2803,1.2803,1.2803,1.2803,1.2803,1.2803,1.2803,1.8438,0.0,0.0,0.0,0.0,0.0,0.0,0.0,0.0,0.0,0.0,0.0,0.0,0.0,0.0,0.0,0.0,2.318,0.0,0.0,0.0,0.0,0.0,0.0,0.0,0.0,0.0,1.8177,1.8386,1.8423,1.8182,1.8255,1.8262,1.8174,1.7928,1.7957,1.8299,1.8299,1.8511,1.8933,1.9087,1.9153,1.9153,1.9153,1.9153,1.9173,1.9261,1.9305,1.932,1.9554,1.9721,1.9818,2.0038,2.0345,2.0708,2.0941,2.1116,2.1196,2.1196,2.1196,2.1196,2.1196,2.1196,2.1254,2.1489,2.1598,2.1723,2.2111,2.2351,2.2557,2.2791,2.2981,2.309,2.309,2.309,2.309,2.309,2.309,2.309,2.309,2.309,2.309,2.309,2.309,2.2957,2.2534,2.2465,2.2315,2.1875,2.1607,2.1466,2.1466,2.1251,2.1093,2.1093,2.1093,2.1093,2.1093,2.1093,2.1093,2.1093,1.8818,1.756,1.756,1.4798,1.3371,1.3371,1.2984,1.2803,1.2803,1.2803,1.2803,0.0,0.0,0.0,1.8472,0.0,0.0,0.0,0.0,1.7989,0.0,0.0,0.0,0.0,0.0,0.0,0.0,0.0,0.0,0.0,0.0,0.0,0.0,0.0,0.0,0.0,1.7826,1.7833,1.7818,1.7826,1.7833,1.7818,1.8118,1.8152,1.7826,1.7811,1.7957,1.8299,1.8299,1.8633,1.9283,1.8963,1.8816,1.8816,1.8816,1.8816,1.8831,1.9166,1.9305,1.9305,1.9312,1.9503,1.9805,1.988,2.0185,2.0594,2.0622,2.0876,2.1196,2.1196,2.1196,2.1196,2.1196,2.1196,2.1196,2.1204,2.1225,2.1218,2.1233,2.1708,2.2213,2.2228,2.2659,2.309,2.309,2.309,2.309,2.309,2.309,2.309,2.309,2.309,2.309,2.309,2.309,2.2879,2.2221,2.2127,2.1875,2.122,2.1125,2.1125,2.1125,2.1109,2.1093,2.1093,2.1093,2.1093,2.1093,2.1093,2.1093,2.1093,1.9718,1.894,1.894,1.623,1.4826,1.4826,1.3453,1.2803,1.2803,1.2803,1.2803,0.0,0.0,2.0532,1.9856,0.0,0.0,0.0,0.0,0.0,0.0,0.0,0.0,0.0,0.0,0.0,0.0,0.0,0.0,0.0,0.0,0.0,0.0,0.0,0.0,0.0,0.0,0.0,1.7485,1.7667,1.7697,1.7477,1.7584,1.7587,1.747,1.747,1.7624,1.7965,1.8196,1.8538,1.8963,1.8853,1.8801,1.8801,1.8801,1.8801,1.8816,1.9146,1.9305,1.9305,1.9305,1.9371,1.9516,1.9933,2.0292,2.0631,2.0903,2.1087,2.1196,2.1196,2.1196,2.1196,2.1196,2.1196,2.1196,2.1196,2.1196,2.1254,2.1467,2.1847,2.2243,2.2425,2.2776,2.309,2.309,2.309,2.309,2.309,2.309,2.309,2.309,2.309,2.309,2.309,2.2918,2.2621,2.2174,2.1907,2.1607,2.1156,2.1093,2.1093,2.1093,2.1093,2.1093,2.1093,2.1093,2.1093,2.1093,2.1093,2.1093,2.1093,1.975,1.9004,1.9004,1.7216,1.6284,1.6284,1.5814,1.5103,1.4198,1.4198,1.3695,1.9225,2.0147,0.0,2.0541,2.0689,0.0,2.0085,0.0,0.0,0.0,0.0,0.0,0.0,0.0,0.0,0.0,0.0,0.0,0.0,1.9581,0.0,0.0,0.0,0.0,0.0,0.0,1.7704,1.7492,1.7565,1.7529,0.0,1.7302,1.7302,1.7302,1.7302,1.7514,1.7972,1.8184,1.8467,1.8801,1.8684,1.8555,1.8445,1.8575,1.8581,1.8533,1.9069,1.9305,1.9305,1.9305,1.9304,1.9363,1.9958,2.0448,2.0787,2.0599,2.0815,2.1196,2.1196,2.1196,2.1196,2.1196,2.1196,2.1196,2.1196,2.1196,2.1262,2.1606,2.195,2.2265,2.2534,2.2849,2.309,2.309,2.309,2.309,2.309,2.309,2.309,2.309,2.309,2.309,2.309,2.2808,2.247,2.2142,2.1812,2.1488,2.1141,2.1093,2.1093,2.1093,2.1093,2.1093,2.1093,2.1093,2.1093,2.1093,2.1093,2.1093,2.1093,2.0233,1.9794,1.9926,1.8474,1.7777,1.7899,1.7292,1.6284,1.4891,1.4891,1.4149]}]]